Wetterdaten: Samstag, 19.02.2022
Datum Zeit Temp. Aussen Temp. o. S. Temp +5cm Feuchte Auss Luftdruck Regen Sonnenschein Regendauer Solar Windben Empfang
19.02.2022 00:00 7,3 C 6,7 C 2,8 C 66 % 1003,4 hPa 0,0 l/m 0 min 0 min 0 W/m 22,5 km/h (4 Bft) 100,00 %
19.02.2022 00:02 7,2 C 6,7 C 2,8 C 66 % 1003,3 hPa 0,0 l/m 0 min 0 min 0 W/m 25,7 km/h (4 Bft) 100,00 %
19.02.2022 00:04 7,2 C 6,7 C 2,8 C 65 % 1003,5 hPa 0,0 l/m 0 min 0 min 0 W/m 32,2 km/h (5 Bft) 100,00 %
19.02.2022 00:08 7,1 C 5,6 C 2,2 C 70 % 1003,8 hPa 0,0 l/m 0 min 4 min 0 W/m 48,3 km/h (6 Bft) 98,94 %
19.02.2022 00:10 6,8 C 5,0 C 1,7 C 72 % 1003,8 hPa 0,0 l/m 0 min 2 min 0 W/m 32,2 km/h (5 Bft) 100,00 %
19.02.2022 00:12 6,6 C 5,0 C 1,1 C 74 % 1004,1 hPa 0,0 l/m 0 min 2 min 0 W/m 54,7 km/h (7 Bft) 98,11 %
19.02.2022 00:14 6,3 C 5,0 C 1,1 C 75 % 1004,2 hPa 0,0 l/m 0 min 0 min 0 W/m 45,1 km/h (6 Bft) 100,00 %
19.02.2022 00:16 6,1 C 5,0 C 1,1 C 76 % 1004,2 hPa 0,0 l/m 0 min 0 min 0 W/m 35,4 km/h (5 Bft) 100,00 %
19.02.2022 00:18 5,9 C 5,0 C 1,1 C 77 % 1004,1 hPa 0,0 l/m 0 min 0 min 0 W/m 29,0 km/h (5 Bft) 95,83 %
19.02.2022 00:20 5,8 C 5,0 C 1,1 C 78 % 1004,1 hPa 0,0 l/m 0 min 0 min 0 W/m 29,0 km/h (5 Bft) 100,00 %
19.02.2022 00:22 5,8 C 5,0 C 1,1 C 78 % 1004,2 hPa 0,0 l/m 0 min 0 min 0 W/m 35,4 km/h (5 Bft) 97,87 %
19.02.2022 00:24 5,7 C 5,0 C 1,1 C 78 % 1004,2 hPa 0,0 l/m 0 min 0 min 0 W/m 54,7 km/h (7 Bft) 100,00 %
19.02.2022 00:26 5,7 C 5,0 C 1,1 C 79 % 1004,3 hPa 0,0 l/m 0 min 0 min 0 W/m 32,2 km/h (5 Bft) 95,74 %
19.02.2022 00:28 5,6 C 5,0 C 1,1 C 79 % 1004,4 hPa 0,0 l/m 0 min 0 min 0 W/m 38,6 km/h (5 Bft) 100,00 %
19.02.2022 00:30 5,6 C 5,0 C 1,1 C 79 % 1004,7 hPa 0,0 l/m 0 min 0 min 0 W/m 32,2 km/h (5 Bft) 97,87 %
19.02.2022 00:32 5,5 C 5,0 C 1,1 C 79 % 1004,6 hPa 0,0 l/m 0 min 0 min 0 W/m 25,7 km/h (4 Bft) 97,87 %
19.02.2022 00:34 5,4 C 5,0 C 1,1 C 79 % 1004,5 hPa 0,0 l/m 0 min 0 min 0 W/m 41,8 km/h (6 Bft) 97,87 %
19.02.2022 00:36 5,4 C 5,0 C 1,1 C 78 % 1004,6 hPa 0,0 l/m 0 min 0 min 0 W/m 29,0 km/h (5 Bft) 97,83 %
19.02.2022 00:38 5,4 C 4,4 C 1,1 C 78 % 1004,7 hPa 0,0 l/m 0 min 0 min 0 W/m 32,2 km/h (5 Bft) 95,74 %
19.02.2022 00:40 5,4 C 4,4 C 1,1 C 78 % 1004,7 hPa 0,0 l/m 0 min 0 min 0 W/m 35,4 km/h (5 Bft) 97,87 %
19.02.2022 00:42 5,4 C 4,4 C 1,1 C 78 % 1004,9 hPa 0,0 l/m 0 min 0 min 0 W/m 32,2 km/h (5 Bft) 95,74 %
19.02.2022 00:44 5,3 C 4,4 C 1,1 C 77 % 1005,3 hPa 0,0 l/m 0 min 0 min 0 W/m 41,8 km/h (6 Bft) 93,62 %
19.02.2022 00:46 5,4 C 5,0 C 1,1 C 76 % 1005,0 hPa 0,0 l/m 0 min 0 min 0 W/m 41,8 km/h (6 Bft) 91,49 %
19.02.2022 00:48 5,4 C 5,0 C 1,1 C 76 % 1005,0 hPa 0,0 l/m 0 min 0 min 0 W/m 29,0 km/h (5 Bft) 97,83 %
19.02.2022 00:50 5,4 C 5,0 C 1,1 C 76 % 1005,1 hPa 0,0 l/m 0 min 0 min 0 W/m 25,7 km/h (4 Bft) 87,23 %
19.02.2022 00:52 5,4 C 5,0 C 1,1 C 75 % 1005,0 hPa 0,0 l/m 0 min 0 min 0 W/m 41,8 km/h (6 Bft) 44,44 %
19.02.2022 00:54 5,4 C 5,0 C 1,1 C 75 % 1005,4 hPa 0,0 l/m 0 min 0 min 0 W/m 35,4 km/h (5 Bft) 95,74 %
19.02.2022 00:56 5,5 C 5,0 C 1,1 C 75 % 1005,0 hPa 0,0 l/m 0 min 0 min 0 W/m 45,1 km/h (6 Bft) 93,62 %
19.02.2022 00:58 5,5 C 5,0 C 1,1 C 74 % 1005,3 hPa 0,0 l/m 0 min 0 min 0 W/m 41,8 km/h (6 Bft) 93,48 %
19.02.2022 01:00 5,6 C 5,0 C 1,7 C 73 % 1005,0 hPa 0,0 l/m 0 min 0 min 0 W/m 41,8 km/h (6 Bft) 93,62 %
19.02.2022 01:02 5,6 C 5,0 C 1,7 C 73 % 1005,1 hPa 0,0 l/m 0 min 0 min 0 W/m 45,1 km/h (6 Bft) 93,75 %
19.02.2022 01:04 5,6 C 5,0 C 1,7 C 72 % 1005,1 hPa 0,0 l/m 0 min 0 min 0 W/m 38,6 km/h (5 Bft) 91,49 %
19.02.2022 01:06 5,6 C 5,0 C 1,7 C 72 % 1005,3 hPa 0,0 l/m 0 min 0 min 0 W/m 38,6 km/h (5 Bft) 91,49 %
19.02.2022 01:08 5,7 C 5,0 C 1,7 C 72 % 1005,6 hPa 0,0 l/m 0 min 0 min 0 W/m 38,6 km/h (5 Bft) 93,62 %
19.02.2022 01:10 5,7 C 5,0 C 1,7 C 72 % 1005,4 hPa 0,0 l/m 0 min 0 min 0 W/m 29,0 km/h (5 Bft) 95,65 %
19.02.2022 01:12 5,7 C 5,0 C 1,7 C 72 % 1005,2 hPa 0,0 l/m 0 min 0 min 0 W/m 38,6 km/h (5 Bft) 93,62 %
19.02.2022 01:14 5,7 C 5,0 C 1,7 C 72 % 1005,4 hPa 0,0 l/m 0 min 0 min 0 W/m 32,2 km/h (5 Bft) 95,74 %
19.02.2022 01:16 5,7 C 5,0 C 1,7 C 72 % 1005,6 hPa 0,0 l/m 0 min 0 min 0 W/m 25,7 km/h (4 Bft) 95,74 %
19.02.2022 01:18 5,7 C 5,0 C 1,7 C 72 % 1005,4 hPa 0,0 l/m 0 min 0 min 0 W/m 29,0 km/h (5 Bft) 95,74 %
19.02.2022 01:20 5,7 C 5,0 C 1,7 C 72 % 1005,5 hPa 0,0 l/m 0 min 0 min 0 W/m 35,4 km/h (5 Bft) 93,62 %
19.02.2022 01:22 5,7 C 5,0 C 1,7 C 72 % 1005,4 hPa 0,0 l/m 0 min 0 min 0 W/m 38,6 km/h (5 Bft) 95,65 %
19.02.2022 01:24 5,7 C 5,0 C 1,7 C 72 % 1005,6 hPa 0,0 l/m 0 min 0 min 0 W/m 32,2 km/h (5 Bft) 93,62 %
19.02.2022 01:26 5,7 C 5,0 C 1,7 C 72 % 1005,7 hPa 0,0 l/m 0 min 0 min 0 W/m 22,5 km/h (4 Bft) 93,62 %
19.02.2022 01:28 5,7 C 5,0 C 1,7 C 71 % 1005,6 hPa 0,0 l/m 0 min 0 min 0 W/m 35,4 km/h (5 Bft) 95,74 %
19.02.2022 01:30 5,7 C 5,0 C 1,7 C 71 % 1005,6 hPa 0,0 l/m 0 min 0 min 0 W/m 41,8 km/h (6 Bft) 97,87 %
19.02.2022 01:32 5,8 C 5,0 C 1,7 C 71 % 1005,6 hPa 0,0 l/m 0 min 0 min 0 W/m 41,8 km/h (6 Bft) 100,00 %
19.02.2022 01:34 5,8 C 5,0 C 1,7 C 71 % 1005,8 hPa 0,0 l/m 0 min 0 min 0 W/m 45,1 km/h (6 Bft) 100,00 %
19.02.2022 01:36 5,8 C 5,0 C 1,7 C 71 % 1005,6 hPa 0,0 l/m 0 min 0 min 0 W/m 45,1 km/h (6 Bft) 97,83 %
19.02.2022 01:38 5,8 C 5,0 C 1,7 C 71 % 1006,4 hPa 0,0 l/m 0 min 0 min 0 W/m 48,3 km/h (6 Bft) 100,00 %
19.02.2022 01:40 5,9 C 5,0 C 1,7 C 70 % 1005,7 hPa 0,0 l/m 0 min 0 min 0 W/m 41,8 km/h (6 Bft) 100,00 %
19.02.2022 01:42 5,9 C 5,0 C 1,7 C 70 % 1006,0 hPa 0,0 l/m 0 min 0 min 0 W/m 38,6 km/h (5 Bft) 100,00 %
19.02.2022 01:44 5,9 C 5,0 C 1,7 C 70 % 1005,9 hPa 0,0 l/m 0 min 0 min 0 W/m 32,2 km/h (5 Bft) 97,73 %
19.02.2022 01:46 5,9 C 5,0 C 1,7 C 70 % 1005,9 hPa 0,0 l/m 0 min 0 min 0 W/m 32,2 km/h (5 Bft) 100,00 %
19.02.2022 01:48 5,9 C 5,0 C 1,7 C 70 % 1006,0 hPa 0,0 l/m 0 min 0 min 0 W/m 45,1 km/h (6 Bft) 100,00 %
19.02.2022 01:50 5,9 C 5,0 C 1,7 C 70 % 1006,2 hPa 0,0 l/m 0 min 0 min 0 W/m 64,4 km/h (8 Bft) 100,00 %
19.02.2022 01:52 5,9 C 5,0 C 1,7 C 70 % 1006,0 hPa 0,0 l/m 0 min 0 min 0 W/m 41,8 km/h (6 Bft) 100,00 %
19.02.2022 01:54 6,0 C 5,0 C 1,7 C 69 % 1006,2 hPa 0,0 l/m 0 min 0 min 0 W/m 25,7 km/h (4 Bft) 97,87 %
19.02.2022 01:56 5,9 C 5,0 C 1,7 C 70 % 1006,1 hPa 0,0 l/m 0 min 0 min 0 W/m 19,3 km/h (3 Bft) 100,00 %
19.02.2022 01:58 5,9 C 5,0 C 1,7 C 70 % 1006,2 hPa 0,0 l/m 0 min 0 min 0 W/m 25,7 km/h (4 Bft) 100,00 %
19.02.2022 02:00 5,9 C 5,0 C 1,7 C 70 % 1006,2 hPa 0,0 l/m 0 min 0 min 0 W/m 25,7 km/h (4 Bft) 100,00 %
19.02.2022 02:02 5,9 C 5,0 C 1,7 C 70 % 1006,2 hPa 0,0 l/m 0 min 0 min 0 W/m 38,6 km/h (5 Bft) 97,87 %
19.02.2022 02:04 5,9 C 5,0 C 1,7 C 70 % 1006,3 hPa 0,0 l/m 0 min 0 min 0 W/m 22,5 km/h (4 Bft) 97,87 %
19.02.2022 02:06 5,9 C 5,0 C 1,7 C 70 % 1006,3 hPa 0,0 l/m 0 min 0 min 0 W/m 45,1 km/h (6 Bft) 100,00 %
19.02.2022 02:08 5,9 C 5,0 C 1,7 C 70 % 1006,5 hPa 0,0 l/m 0 min 0 min 0 W/m 25,7 km/h (4 Bft) 100,00 %
19.02.2022 02:10 5,9 C 5,0 C 1,7 C 69 % 1006,3 hPa 0,0 l/m 0 min 0 min 0 W/m 32,2 km/h (5 Bft) 100,00 %
19.02.2022 02:12 5,9 C 5,0 C 1,7 C 70 % 1006,2 hPa 0,0 l/m 0 min 0 min 0 W/m 22,5 km/h (4 Bft) 97,87 %
19.02.2022 02:14 5,8 C 5,0 C 1,7 C 70 % 1006,3 hPa 0,0 l/m 0 min 0 min 0 W/m 29,0 km/h (5 Bft) 100,00 %
19.02.2022 02:16 5,8 C 5,0 C 1,7 C 70 % 1006,3 hPa 0,0 l/m 0 min 0 min 0 W/m 29,0 km/h (5 Bft) 100,00 %
19.02.2022 02:18 5,8 C 5,0 C 1,7 C 70 % 1006,5 hPa 0,0 l/m 0 min 0 min 0 W/m 32,2 km/h (5 Bft) 100,00 %
19.02.2022 02:20 5,8 C 5,0 C 1,7 C 70 % 1006,5 hPa 0,0 l/m 0 min 0 min 0 W/m 25,7 km/h (4 Bft) 100,00 %
19.02.2022 02:22 5,8 C 5,0 C 1,7 C 70 % 1006,4 hPa 0,0 l/m 0 min 0 min 0 W/m 29,0 km/h (5 Bft) 100,00 %
19.02.2022 02:24 5,8 C 5,0 C 1,7 C 70 % 1006,4 hPa 0,0 l/m 0 min 0 min 0 W/m 29,0 km/h (5 Bft) 100,00 %
19.02.2022 02:26 5,8 C 5,0 C 1,7 C 71 % 1006,4 hPa 0,0 l/m 0 min 0 min 0 W/m 22,5 km/h (4 Bft) 100,00 %
19.02.2022 02:28 5,7 C 5,0 C 1,7 C 70 % 1006,5 hPa 0,0 l/m 0 min 0 min 0 W/m 57,9 km/h (7 Bft) 97,87 %
19.02.2022 02:30 5,8 C 5,0 C 1,7 C 70 % 1006,5 hPa 0,0 l/m 0 min 0 min 0 W/m 41,8 km/h (6 Bft) 97,87 %
19.02.2022 02:32 5,7 C 5,0 C 1,7 C 71 % 1006,4 hPa 0,0 l/m 0 min 0 min 0 W/m 25,7 km/h (4 Bft) 97,87 %
19.02.2022 02:34 5,7 C 5,0 C 1,1 C 71 % 1006,5 hPa 0,0 l/m 0 min 0 min 0 W/m 35,4 km/h (5 Bft) 100,00 %
19.02.2022 02:36 5,7 C 5,0 C 1,1 C 71 % 1006,6 hPa 0,0 l/m 0 min 0 min 0 W/m 61,2 km/h (7 Bft) 93,62 %
19.02.2022 02:38 5,7 C 5,0 C 1,1 C 71 % 1006,6 hPa 0,0 l/m 0 min 0 min 0 W/m 25,7 km/h (4 Bft) 95,74 %
19.02.2022 02:40 5,7 C 5,0 C 1,7 C 71 % 1006,7 hPa 0,0 l/m 0 min 0 min 0 W/m 29,0 km/h (5 Bft) 97,87 %
19.02.2022 02:42 5,7 C 5,0 C 1,7 C 70 % 1006,7 hPa 0,0 l/m 0 min 0 min 0 W/m 41,8 km/h (6 Bft) 97,92 %
19.02.2022 02:44 5,7 C 5,0 C 1,7 C 70 % 1006,7 hPa 0,0 l/m 0 min 0 min 0 W/m 35,4 km/h (5 Bft) 97,87 %
19.02.2022 02:46 5,7 C 5,0 C 1,7 C 70 % 1006,8 hPa 0,0 l/m 0 min 0 min 0 W/m 41,8 km/h (6 Bft) 95,65 %
19.02.2022 02:48 5,7 C 5,0 C 1,1 C 70 % 1007,0 hPa 0,0 l/m 0 min 0 min 0 W/m 32,2 km/h (5 Bft) 93,62 %
19.02.2022 02:50 5,7 C 5,0 C 1,1 C 70 % 1006,9 hPa 0,0 l/m 0 min 0 min 0 W/m 35,4 km/h (5 Bft) 97,87 %
19.02.2022 02:52 5,7 C 5,0 C 1,1 C 70 % 1007,0 hPa 0,0 l/m 0 min 0 min 0 W/m 25,7 km/h (4 Bft) 97,87 %
19.02.2022 02:54 5,7 C 5,0 C 1,7 C 70 % 1007,0 hPa 0,0 l/m 0 min 0 min 0 W/m 29,0 km/h (5 Bft) 95,74 %
19.02.2022 02:56 5,7 C 5,0 C 1,7 C 70 % 1007,0 hPa 0,0 l/m 0 min 0 min 0 W/m 22,5 km/h (4 Bft) 95,74 %
19.02.2022 02:58 5,7 C 5,0 C 1,7 C 70 % 1007,1 hPa 0,0 l/m 0 min 0 min 0 W/m 29,0 km/h (5 Bft) 97,83 %
19.02.2022 03:00 5,7 C 5,0 C 1,7 C 70 % 1007,2 hPa 0,0 l/m 0 min 0 min 0 W/m 16,1 km/h (3 Bft) 95,74 %
19.02.2022 03:02 5,7 C 5,0 C 1,7 C 70 % 1007,3 hPa 0,0 l/m 0 min 0 min 0 W/m 25,7 km/h (4 Bft) 97,87 %
19.02.2022 03:04 5,7 C 5,0 C 1,7 C 70 % 1007,3 hPa 0,0 l/m 0 min 0 min 0 W/m 32,2 km/h (5 Bft) 95,74 %
19.02.2022 03:06 5,7 C 5,0 C 1,7 C 70 % 1007,5 hPa 0,0 l/m 0 min 0 min 0 W/m 22,5 km/h (4 Bft) 100,00 %
19.02.2022 03:08 5,7 C 5,0 C 1,7 C 70 % 1007,4 hPa 0,0 l/m 0 min 0 min 0 W/m 25,7 km/h (4 Bft) 97,87 %
19.02.2022 03:10 5,8 C 5,0 C 1,7 C 70 % 1007,3 hPa 0,0 l/m 0 min 0 min 0 W/m 32,2 km/h (5 Bft) 95,65 %
19.02.2022 03:12 5,8 C 5,0 C 1,7 C 70 % 1007,4 hPa 0,0 l/m 0 min 0 min 0 W/m 25,7 km/h (4 Bft) 97,87 %
19.02.2022 03:14 5,8 C 5,0 C 1,7 C 70 % 1007,5 hPa 0,0 l/m 0 min 0 min 0 W/m 32,2 km/h (5 Bft) 100,00 %
19.02.2022 03:16 5,7 C 5,0 C 1,7 C 70 % 1007,5 hPa 0,0 l/m 0 min 0 min 0 W/m 25,7 km/h (4 Bft) 100,00 %
19.02.2022 03:18 5,7 C 5,0 C 1,7 C 70 % 1007,6 hPa 0,0 l/m 0 min 0 min 0 W/m 29,0 km/h (5 Bft) 100,00 %
19.02.2022 03:20 5,7 C 5,0 C 1,7 C 70 % 1007,6 hPa 0,0 l/m 0 min 0 min 0 W/m 22,5 km/h (4 Bft) 97,83 %
19.02.2022 03:22 5,7 C 5,0 C 1,7 C 70 % 1007,8 hPa 0,0 l/m 0 min 0 min 0 W/m 29,0 km/h (5 Bft) 95,74 %
19.02.2022 03:24 5,7 C 5,0 C 1,7 C 70 % 1007,8 hPa 0,0 l/m 0 min 0 min 0 W/m 29,0 km/h (5 Bft) 97,87 %
19.02.2022 03:26 5,7 C 5,0 C 1,7 C 70 % 1007,9 hPa 0,0 l/m 0 min 0 min 0 W/m 32,2 km/h (5 Bft) 97,87 %
19.02.2022 03:28 5,7 C 5,0 C 1,7 C 70 % 1007,6 hPa 0,0 l/m 0 min 0 min 0 W/m 32,2 km/h (5 Bft) 97,87 %
19.02.2022 03:30 5,7 C 5,0 C 1,7 C 70 % 1007,9 hPa 0,0 l/m 0 min 0 min 0 W/m 25,7 km/h (4 Bft) 97,87 %
19.02.2022 03:32 5,7 C 5,0 C 1,7 C 70 % 1007,8 hPa 0,0 l/m 0 min 0 min 0 W/m 19,3 km/h (3 Bft) 97,87 %
19.02.2022 03:34 5,7 C 5,0 C 1,7 C 70 % 1007,7 hPa 0,0 l/m 0 min 0 min 0 W/m 32,2 km/h (5 Bft) 97,87 %
19.02.2022 03:36 5,7 C 5,0 C 1,7 C 70 % 1007,9 hPa 0,0 l/m 0 min 0 min 0 W/m 45,1 km/h (6 Bft) 93,62 %
19.02.2022 03:38 5,7 C 5,0 C 1,7 C 70 % 1007,8 hPa 0,0 l/m 0 min 0 min 0 W/m 29,0 km/h (5 Bft) 95,74 %
19.02.2022 03:40 5,6 C 5,0 C 1,7 C 70 % 1007,8 hPa 0,0 l/m 0 min 0 min 0 W/m 25,7 km/h (4 Bft) 95,74 %
19.02.2022 03:42 5,6 C 5,0 C 1,7 C 70 % 1007,9 hPa 0,0 l/m 0 min 0 min 0 W/m 35,4 km/h (5 Bft) 93,62 %
19.02.2022 03:44 5,6 C 5,0 C 1,7 C 70 % 1008,0 hPa 0,0 l/m 0 min 0 min 0 W/m 19,3 km/h (3 Bft) 95,65 %
19.02.2022 03:46 5,6 C 5,0 C 1,7 C 71 % 1008,1 hPa 0,0 l/m 0 min 0 min 0 W/m 29,0 km/h (5 Bft) 95,74 %
19.02.2022 03:48 5,6 C 5,0 C 1,7 C 70 % 1008,1 hPa 0,0 l/m 0 min 0 min 0 W/m 25,7 km/h (4 Bft) 95,74 %
19.02.2022 03:50 5,6 C 5,0 C 1,7 C 71 % 1008,2 hPa 0,0 l/m 0 min 0 min 0 W/m 25,7 km/h (4 Bft) 95,74 %
19.02.2022 03:52 5,6 C 5,0 C 1,7 C 71 % 1008,1 hPa 0,0 l/m 0 min 0 min 0 W/m 29,0 km/h (5 Bft) 95,83 %
19.02.2022 03:54 5,6 C 5,0 C 1,7 C 71 % 1008,3 hPa 0,0 l/m 0 min 0 min 0 W/m 19,3 km/h (3 Bft) 95,74 %
19.02.2022 03:56 5,6 C 5,0 C 1,1 C 71 % 1008,5 hPa 0,0 l/m 0 min 0 min 0 W/m 25,7 km/h (4 Bft) 93,48 %
19.02.2022 03:58 5,6 C 5,0 C 1,1 C 71 % 1008,3 hPa 0,0 l/m 0 min 0 min 0 W/m 38,6 km/h (5 Bft) 95,74 %
19.02.2022 04:00 5,6 C 5,0 C 1,1 C 71 % 1008,4 hPa 0,0 l/m 0 min 0 min 0 W/m 22,5 km/h (4 Bft) 93,62 %
19.02.2022 04:02 5,6 C 5,0 C 1,1 C 71 % 1008,5 hPa 0,0 l/m 0 min 0 min 0 W/m 35,4 km/h (5 Bft) 97,37 %
19.02.2022 04:04 5,6 C 5,0 C 1,1 C 71 % 1008,5 hPa 0,0 l/m 0 min 0 min 0 W/m 29,0 km/h (5 Bft) 100,00 %
19.02.2022 04:06 5,6 C 5,0 C 1,1 C 72 % 1008,4 hPa 0,0 l/m 0 min 0 min 0 W/m 25,7 km/h (4 Bft) 95,74 %
19.02.2022 04:08 5,5 C 5,0 C 1,1 C 72 % 1008,5 hPa 0,0 l/m 0 min 0 min 0 W/m 25,7 km/h (4 Bft) 97,83 %
19.02.2022 04:10 5,6 C 5,0 C 1,1 C 72 % 1008,6 hPa 0,0 l/m 0 min 0 min 0 W/m 35,4 km/h (5 Bft) 95,74 %
19.02.2022 04:12 5,6 C 5,0 C 1,1 C 71 % 1008,5 hPa 0,0 l/m 0 min 0 min 0 W/m 29,0 km/h (5 Bft) 97,87 %
19.02.2022 04:14 5,6 C 5,0 C 1,1 C 72 % 1008,7 hPa 0,0 l/m 0 min 0 min 0 W/m 19,3 km/h (3 Bft) 100,00 %
19.02.2022 04:16 5,6 C 5,0 C 1,1 C 72 % 1008,6 hPa 0,0 l/m 0 min 0 min 0 W/m 16,1 km/h (3 Bft) 95,74 %
19.02.2022 04:18 5,6 C 5,0 C 1,1 C 72 % 1008,5 hPa 0,0 l/m 0 min 0 min 0 W/m 22,5 km/h (4 Bft) 97,87 %
19.02.2022 04:20 5,5 C 5,0 C 1,1 C 72 % 1008,6 hPa 0,0 l/m 0 min 0 min 0 W/m 25,7 km/h (4 Bft) 97,83 %
19.02.2022 04:22 5,5 C 5,0 C 1,1 C 72 % 1008,7 hPa 0,0 l/m 0 min 0 min 0 W/m 41,8 km/h (6 Bft) 97,87 %
19.02.2022 04:24 5,5 C 5,0 C 1,1 C 72 % 1009,0 hPa 0,0 l/m 0 min 0 min 0 W/m 38,6 km/h (5 Bft) 95,74 %
19.02.2022 04:26 5,4 C 5,0 C 1,1 C 72 % 1009,0 hPa 0,0 l/m 0 min 0 min 0 W/m 25,7 km/h (4 Bft) 97,87 %
19.02.2022 04:28 5,4 C 4,4 C 1,1 C 72 % 1008,9 hPa 0,0 l/m 0 min 0 min 0 W/m 16,1 km/h (3 Bft) 97,87 %
19.02.2022 04:30 5,4 C 4,4 C 1,1 C 72 % 1008,9 hPa 0,0 l/m 0 min 0 min 0 W/m 19,3 km/h (3 Bft) 97,87 %
19.02.2022 04:32 5,4 C 4,4 C 1,1 C 72 % 1009,0 hPa 0,0 l/m 0 min 0 min 0 W/m 35,4 km/h (5 Bft) 97,83 %
19.02.2022 04:34 5,4 C 4,4 C 1,1 C 73 % 1009,0 hPa 0,0 l/m 0 min 0 min 0 W/m 22,5 km/h (4 Bft) 95,74 %
19.02.2022 04:36 5,4 C 4,4 C 1,1 C 73 % 1009,0 hPa 0,0 l/m 0 min 0 min 0 W/m 22,5 km/h (4 Bft) 97,87 %
19.02.2022 04:38 5,4 C 5,0 C 1,1 C 72 % 1009,1 hPa 0,0 l/m 0 min 0 min 0 W/m 22,5 km/h (4 Bft) 97,87 %
19.02.2022 04:40 5,4 C 5,0 C 1,1 C 73 % 1009,1 hPa 0,0 l/m 0 min 0 min 0 W/m 25,7 km/h (4 Bft) 95,74 %
19.02.2022 04:42 5,4 C 5,0 C 1,1 C 72 % 1009,4 hPa 0,0 l/m 0 min 0 min 0 W/m 29,0 km/h (5 Bft) 97,87 %
19.02.2022 04:44 5,4 C 5,0 C 1,1 C 72 % 1009,3 hPa 0,0 l/m 0 min 0 min 0 W/m 29,0 km/h (5 Bft) 93,48 %
19.02.2022 04:46 5,4 C 4,4 C 1,1 C 73 % 1009,3 hPa 0,0 l/m 0 min 0 min 0 W/m 19,3 km/h (3 Bft) 97,87 %
19.02.2022 04:48 5,3 C 4,4 C 1,1 C 73 % 1009,3 hPa 0,0 l/m 0 min 0 min 0 W/m 16,1 km/h (3 Bft) 95,74 %
19.02.2022 04:50 5,3 C 4,4 C 1,1 C 73 % 1009,4 hPa 0,0 l/m 0 min 0 min 0 W/m 16,1 km/h (3 Bft) 97,87 %
19.02.2022 04:52 5,3 C 4,4 C 1,1 C 73 % 1009,5 hPa 0,0 l/m 0 min 0 min 0 W/m 29,0 km/h (5 Bft) 97,87 %
19.02.2022 04:54 5,3 C 5,0 C 1,1 C 72 % 1009,4 hPa 0,0 l/m 0 min 0 min 0 W/m 25,7 km/h (4 Bft) 97,83 %
19.02.2022 04:56 5,3 C 4,4 C 1,1 C 73 % 1009,5 hPa 0,0 l/m 0 min 0 min 0 W/m 22,5 km/h (4 Bft) 97,87 %
19.02.2022 04:58 5,3 C 4,4 C 1,1 C 73 % 1009,5 hPa 0,0 l/m 0 min 0 min 0 W/m 35,4 km/h (5 Bft) 97,87 %
19.02.2022 05:00 5,3 C 4,4 C 1,1 C 73 % 1009,6 hPa 0,0 l/m 0 min 0 min 0 W/m 29,0 km/h (5 Bft) 97,87 %
19.02.2022 05:02 5,3 C 4,4 C 1,1 C 73 % 1009,7 hPa 0,0 l/m 0 min 0 min 0 W/m 25,7 km/h (4 Bft) 94,29 %
19.02.2022 05:04 5,3 C 4,4 C 1,1 C 73 % 1009,8 hPa 0,0 l/m 0 min 0 min 0 W/m 35,4 km/h (5 Bft) 97,87 %
19.02.2022 05:06 5,3 C 4,4 C 1,1 C 73 % 1009,9 hPa 0,0 l/m 0 min 0 min 0 W/m 22,5 km/h (4 Bft) 100,00 %
19.02.2022 05:08 5,3 C 4,4 C 1,1 C 73 % 1009,9 hPa 0,0 l/m 0 min 0 min 0 W/m 38,6 km/h (5 Bft) 100,00 %
19.02.2022 05:10 5,3 C 4,4 C 1,1 C 73 % 1009,9 hPa 0,0 l/m 0 min 0 min 0 W/m 16,1 km/h (3 Bft) 100,00 %
19.02.2022 05:12 5,3 C 4,4 C 1,1 C 74 % 1010,0 hPa 0,0 l/m 0 min 0 min 0 W/m 19,3 km/h (3 Bft) 100,00 %
19.02.2022 05:14 5,2 C 4,4 C 1,1 C 74 % 1010,2 hPa 0,0 l/m 0 min 0 min 0 W/m 25,7 km/h (4 Bft) 100,00 %
19.02.2022 05:16 5,2 C 4,4 C 1,1 C 74 % 1010,2 hPa 0,0 l/m 0 min 0 min 0 W/m 25,7 km/h (4 Bft) 100,00 %
19.02.2022 05:18 5,2 C 4,4 C 1,1 C 74 % 1010,3 hPa 0,0 l/m 0 min 0 min 0 W/m 22,5 km/h (4 Bft) 100,00 %
19.02.2022 05:20 5,2 C 4,4 C 1,1 C 74 % 1010,3 hPa 0,0 l/m 0 min 0 min 0 W/m 35,4 km/h (5 Bft) 100,00 %
19.02.2022 05:22 5,2 C 4,4 C 1,1 C 74 % 1010,4 hPa 0,0 l/m 0 min 0 min 0 W/m 19,3 km/h (3 Bft) 100,00 %
19.02.2022 05:24 5,2 C 4,4 C 1,1 C 74 % 1010,4 hPa 0,0 l/m 0 min 0 min 0 W/m 19,3 km/h (3 Bft) 100,00 %
19.02.2022 05:26 5,2 C 4,4 C 1,1 C 74 % 1010,3 hPa 0,0 l/m 0 min 0 min 0 W/m 29,0 km/h (5 Bft) 100,00 %
19.02.2022 05:28 5,2 C 4,4 C 1,1 C 74 % 1010,5 hPa 0,0 l/m 0 min 0 min 0 W/m 25,7 km/h (4 Bft) 97,87 %
19.02.2022 05:30 5,1 C 4,4 C 1,1 C 74 % 1010,5 hPa 0,0 l/m 0 min 0 min 0 W/m 25,7 km/h (4 Bft) 100,00 %
19.02.2022 05:32 5,1 C 4,4 C 1,1 C 74 % 1010,6 hPa 0,0 l/m 0 min 0 min 0 W/m 16,1 km/h (3 Bft) 100,00 %
19.02.2022 05:34 5,1 C 4,4 C 1,1 C 75 % 1010,6 hPa 0,0 l/m 0 min 0 min 0 W/m 25,7 km/h (4 Bft) 100,00 %
19.02.2022 05:36 5,1 C 4,4 C 1,1 C 75 % 1010,6 hPa 0,0 l/m 0 min 0 min 0 W/m 19,3 km/h (3 Bft) 97,87 %
19.02.2022 05:38 5,1 C 4,4 C 1,1 C 75 % 1010,7 hPa 0,0 l/m 0 min 0 min 0 W/m 22,5 km/h (4 Bft) 95,74 %
19.02.2022 05:40 5,0 C 4,4 C 0,6 C 74 % 1010,7 hPa 0,0 l/m 0 min 0 min 0 W/m 25,7 km/h (4 Bft) 100,00 %
19.02.2022 05:42 5,0 C 4,4 C 0,6 C 75 % 1010,8 hPa 0,0 l/m 0 min 0 min 0 W/m 29,0 km/h (5 Bft) 100,00 %
19.02.2022 05:44 4,9 C 3,9 C 0,6 C 75 % 1010,8 hPa 0,0 l/m 0 min 0 min 0 W/m 22,5 km/h (4 Bft) 97,87 %
19.02.2022 05:46 4,9 C 3,9 C 0,6 C 75 % 1010,9 hPa 0,0 l/m 0 min 0 min 0 W/m 19,3 km/h (3 Bft) 100,00 %
19.02.2022 05:48 4,8 C 3,9 C 0,6 C 75 % 1010,9 hPa 0,0 l/m 0 min 0 min 0 W/m 19,3 km/h (3 Bft) 97,87 %
19.02.2022 05:50 4,8 C 3,9 C 0,6 C 75 % 1011,0 hPa 0,0 l/m 0 min 0 min 0 W/m 22,5 km/h (4 Bft) 100,00 %
19.02.2022 05:52 4,8 C 3,9 C 0,6 C 75 % 1011,0 hPa 0,0 l/m 0 min 0 min 0 W/m 25,7 km/h (4 Bft) 100,00 %
19.02.2022 05:54 4,8 C 3,9 C 0,6 C 75 % 1011,0 hPa 0,0 l/m 0 min 0 min 0 W/m 22,5 km/h (4 Bft) 97,83 %
19.02.2022 05:56 4,8 C 3,9 C 0,6 C 75 % 1011,1 hPa 0,0 l/m 0 min 0 min 0 W/m 25,7 km/h (4 Bft) 95,74 %
19.02.2022 05:58 4,7 C 3,9 C 0,6 C 75 % 1011,1 hPa 0,0 l/m 0 min 0 min 0 W/m 22,5 km/h (4 Bft) 97,87 %
19.02.2022 06:00 4,8 C 3,9 C 0,6 C 75 % 1011,2 hPa 0,0 l/m 0 min 0 min 0 W/m 29,0 km/h (5 Bft) 97,87 %
19.02.2022 06:02 4,8 C 4,4 C 0,6 C 75 % 1011,2 hPa 0,0 l/m 0 min 0 min 0 W/m 29,0 km/h (5 Bft) 97,14 %
19.02.2022 06:04 4,8 C 4,4 C 0,6 C 76 % 1011,3 hPa 0,0 l/m 0 min 0 min 0 W/m 22,5 km/h (4 Bft) 95,74 %
19.02.2022 06:08 4,8 C 3,9 C 0,6 C 77 % 1011,4 hPa 0,0 l/m 0 min 4 min 0 W/m 19,3 km/h (3 Bft) 97,87 %
19.02.2022 06:10 4,8 C 3,9 C 0,0 C 78 % 1011,5 hPa 0,0 l/m 0 min 2 min 0 W/m 19,3 km/h (3 Bft) 97,83 %
19.02.2022 06:12 4,7 C 3,9 C 0,0 C 78 % 1011,6 hPa 0,0 l/m 0 min 2 min 0 W/m 25,7 km/h (4 Bft) 97,87 %
19.02.2022 06:14 4,7 C 3,9 C 0,0 C 78 % 1011,4 hPa 0,0 l/m 0 min 2 min 0 W/m 16,1 km/h (3 Bft) 97,87 %
19.02.2022 06:16 4,7 C 3,9 C 0,0 C 78 % 1011,5 hPa 0,0 l/m 0 min 2 min 0 W/m 29,0 km/h (5 Bft) 95,74 %
19.02.2022 06:18 4,7 C 3,9 C 0,0 C 78 % 1011,4 hPa 0,0 l/m 0 min 2 min 0 W/m 22,5 km/h (4 Bft) 97,87 %
19.02.2022 06:20 4,7 C 3,9 C 0,6 C 77 % 1011,4 hPa 0,0 l/m 0 min 2 min 0 W/m 22,5 km/h (4 Bft) 97,87 %
19.02.2022 06:22 4,6 C 3,9 C 0,6 C 77 % 1011,4 hPa 0,0 l/m 0 min 2 min 0 W/m 29,0 km/h (5 Bft) 97,83 %
19.02.2022 06:24 4,6 C 3,9 C 0,6 C 77 % 1011,5 hPa 0,0 l/m 0 min 2 min 0 W/m 32,2 km/h (5 Bft) 96,23 %
19.02.2022 06:26 4,6 C 3,9 C 0,6 C 76 % 1011,4 hPa 0,0 l/m 0 min 0 min 0 W/m 25,7 km/h (4 Bft) 95,12 %
19.02.2022 06:28 4,6 C 3,9 C 0,6 C 76 % 1011,6 hPa 0,0 l/m 0 min 0 min 0 W/m 16,1 km/h (3 Bft) 94,34 %
19.02.2022 06:30 4,6 C 3,9 C 0,6 C 77 % 1011,6 hPa 0,0 l/m 0 min 0 min 0 W/m 29,0 km/h (5 Bft) 93,62 %
19.02.2022 06:32 4,6 C 3,9 C 0,6 C 76 % 1011,5 hPa 0,0 l/m 0 min 0 min 0 W/m 19,3 km/h (3 Bft) 95,65 %
19.02.2022 06:34 4,6 C 3,9 C 0,6 C 76 % 1011,5 hPa 0,0 l/m 0 min 0 min 0 W/m 25,7 km/h (4 Bft) 97,87 %
19.02.2022 06:36 4,5 C 3,9 C 0,6 C 76 % 1011,6 hPa 0,0 l/m 0 min 0 min 0 W/m 19,3 km/h (3 Bft) 97,87 %
19.02.2022 06:38 4,5 C 3,9 C 0,6 C 76 % 1011,5 hPa 0,0 l/m 0 min 0 min 0 W/m 22,5 km/h (4 Bft) 93,62 %
19.02.2022 06:40 4,5 C 3,9 C 0,6 C 76 % 1011,6 hPa 0,0 l/m 0 min 0 min 0 W/m 25,7 km/h (4 Bft) 95,74 %
19.02.2022 06:42 4,5 C 3,9 C 0,6 C 76 % 1011,7 hPa 0,0 l/m 0 min 0 min 0 W/m 35,4 km/h (5 Bft) 93,62 %
19.02.2022 06:44 4,5 C 3,9 C 0,6 C 76 % 1011,8 hPa 0,0 l/m 0 min 0 min 0 W/m 25,7 km/h (4 Bft) 100,00 %
19.02.2022 06:46 4,5 C 3,9 C 0,6 C 76 % 1011,8 hPa 0,0 l/m 0 min 0 min 0 W/m 25,7 km/h (4 Bft) 95,12 %
19.02.2022 06:48 4,5 C 3,9 C 0,6 C 77 % 1011,7 hPa 0,0 l/m 0 min 0 min 0 W/m 25,7 km/h (4 Bft) 96,55 %
19.02.2022 06:50 4,5 C 3,9 C 0,0 C 77 % 1011,6 hPa 0,0 l/m 0 min 0 min 0 W/m 38,6 km/h (5 Bft) 91,49 %
19.02.2022 06:52 4,4 C 3,9 C 0,0 C 77 % 1011,7 hPa 0,0 l/m 0 min 0 min 0 W/m 25,7 km/h (4 Bft) 93,62 %
19.02.2022 06:54 4,4 C 3,9 C 0,0 C 77 % 1011,7 hPa 0,0 l/m 0 min 0 min 0 W/m 16,1 km/h (3 Bft) 97,83 %
19.02.2022 06:56 4,4 C 3,9 C 0,0 C 77 % 1011,6 hPa 0,0 l/m 0 min 0 min 0 W/m 19,3 km/h (3 Bft) 97,56 %
19.02.2022 06:58 4,4 C 3,9 C 0,0 C 77 % 1011,8 hPa 0,0 l/m 0 min 0 min 0 W/m 25,7 km/h (4 Bft) 98,11 %
19.02.2022 07:00 4,4 C 3,9 C 0,0 C 77 % 1011,9 hPa 0,0 l/m 0 min 0 min 0 W/m 22,5 km/h (4 Bft) 97,92 %
19.02.2022 07:02 4,3 C 3,9 C 0,0 C 77 % 1011,7 hPa 0,0 l/m 0 min 0 min 0 W/m 22,5 km/h (4 Bft) 97,87 %
19.02.2022 07:04 4,3 C 3,9 C 0,0 C 77 % 1011,9 hPa 0,0 l/m 0 min 0 min 0 W/m 22,5 km/h (4 Bft) 97,87 %
19.02.2022 07:06 4,3 C 3,9 C 0,6 C 77 % 1011,9 hPa 0,0 l/m 0 min 0 min 0 W/m 19,3 km/h (3 Bft) 95,65 %
19.02.2022 07:08 4,3 C 3,9 C 0,0 C 77 % 1012,0 hPa 0,0 l/m 0 min 0 min 0 W/m 22,5 km/h (4 Bft) 97,87 %
19.02.2022 07:10 4,3 C 3,9 C 0,0 C 76 % 1011,9 hPa 0,0 l/m 0 min 0 min 0 W/m 19,3 km/h (3 Bft) 97,87 %
19.02.2022 07:12 4,3 C 3,9 C 0,0 C 76 % 1012,0 hPa 0,0 l/m 0 min 0 min 0 W/m 22,5 km/h (4 Bft) 95,74 %
19.02.2022 07:14 4,3 C 3,3 C 0,0 C 76 % 1012,0 hPa 0,0 l/m 0 min 0 min 0 W/m 16,1 km/h (3 Bft) 97,87 %
19.02.2022 07:16 4,3 C 3,3 C 0,0 C 76 % 1012,0 hPa 0,0 l/m 0 min 0 min 0 W/m 19,3 km/h (3 Bft) 97,87 %
19.02.2022 07:18 4,3 C 3,3 C 0,0 C 76 % 1012,0 hPa 0,0 l/m 0 min 0 min 0 W/m 19,3 km/h (3 Bft) 97,83 %
19.02.2022 07:20 4,3 C 3,3 C 0,0 C 76 % 1012,1 hPa 0,0 l/m 0 min 0 min 0 W/m 16,1 km/h (3 Bft) 97,87 %
19.02.2022 07:22 4,3 C 3,3 C 0,0 C 76 % 1012,4 hPa 0,0 l/m 0 min 0 min 0 W/m 35,4 km/h (5 Bft) 97,87 %
19.02.2022 07:24 4,3 C 3,3 C 0,0 C 76 % 1012,1 hPa 0,0 l/m 0 min 0 min 0 W/m 22,5 km/h (4 Bft) 97,87 %
19.02.2022 07:26 4,3 C 3,3 C 0,0 C 76 % 1012,0 hPa 0,0 l/m 0 min 0 min 0 W/m 25,7 km/h (4 Bft) 95,83 %
19.02.2022 07:28 4,3 C 3,3 C 0,0 C 76 % 1012,0 hPa 0,0 l/m 0 min 0 min 0 W/m 22,5 km/h (4 Bft) 97,87 %
19.02.2022 07:30 4,3 C 3,3 C 0,0 C 76 % 1012,1 hPa 0,0 l/m 0 min 0 min 0 W/m 32,2 km/h (5 Bft) 95,65 %
19.02.2022 07:32 4,3 C 3,3 C 0,0 C 76 % 1012,1 hPa 0,0 l/m 0 min 0 min 0 W/m 29,0 km/h (5 Bft) 100,00 %
19.02.2022 07:34 4,3 C 3,3 C 0,0 C 76 % 1012,2 hPa 0,0 l/m 0 min 0 min 0 W/m 35,4 km/h (5 Bft) 97,87 %
19.02.2022 07:36 4,3 C 3,3 C 0,0 C 76 % 1012,3 hPa 0,0 l/m 0 min 0 min 0 W/m 35,4 km/h (5 Bft) 97,87 %
19.02.2022 07:38 4,3 C 3,3 C 0,0 C 76 % 1012,4 hPa 0,0 l/m 0 min 0 min 0 W/m 22,5 km/h (4 Bft) 100,00 %
19.02.2022 07:40 4,3 C 3,9 C 0,0 C 76 % 1012,4 hPa 0,0 l/m 0 min 0 min 0 W/m 29,0 km/h (5 Bft) 100,00 %
19.02.2022 07:42 4,3 C 3,9 C 0,0 C 76 % 1012,4 hPa 0,0 l/m 0 min 0 min 1 W/m 29,0 km/h (5 Bft) 100,00 %
19.02.2022 07:44 4,3 C 3,9 C 0,0 C 76 % 1012,3 hPa 0,0 l/m 0 min 0 min 5 W/m 35,4 km/h (5 Bft) 100,00 %
19.02.2022 07:46 4,4 C 3,9 C 0,0 C 75 % 1012,4 hPa 0,0 l/m 0 min 0 min 5 W/m 25,7 km/h (4 Bft) 100,00 %
19.02.2022 07:48 4,4 C 3,9 C 0,0 C 76 % 1012,4 hPa 0,0 l/m 0 min 0 min 6 W/m 29,0 km/h (5 Bft) 100,00 %
19.02.2022 07:50 4,3 C 3,9 C 0,0 C 75 % 1012,5 hPa 0,0 l/m 0 min 0 min 9 W/m 22,5 km/h (4 Bft) 95,74 %
19.02.2022 07:52 4,3 C 3,9 C 0,0 C 76 % 1012,5 hPa 0,0 l/m 0 min 0 min 11 W/m 22,5 km/h (4 Bft) 100,00 %
19.02.2022 07:54 4,3 C 3,9 C 0,0 C 76 % 1012,6 hPa 0,0 l/m 0 min 0 min 11 W/m 25,7 km/h (4 Bft) 100,00 %
19.02.2022 07:56 4,3 C 3,9 C 0,0 C 76 % 1012,6 hPa 0,0 l/m 0 min 0 min 11 W/m 32,2 km/h (5 Bft) 100,00 %
19.02.2022 07:58 4,3 C 3,9 C 0,0 C 76 % 1012,6 hPa 0,0 l/m 0 min 0 min 12 W/m 35,4 km/h (5 Bft) 100,00 %
19.02.2022 08:00 4,3 C 3,3 C 0,0 C 76 % 1012,7 hPa 0,0 l/m 0 min 0 min 14 W/m 25,7 km/h (4 Bft) 100,00 %
19.02.2022 08:02 4,3 C 3,3 C 0,0 C 76 % 1012,7 hPa 0,0 l/m 0 min 0 min 15 W/m 19,3 km/h (3 Bft) 97,87 %
19.02.2022 08:04 4,3 C 3,3 C 0,0 C 76 % 1012,7 hPa 0,0 l/m 0 min 0 min 17 W/m 22,5 km/h (4 Bft) 100,00 %
19.02.2022 08:06 4,3 C 3,9 C 0,0 C 76 % 1012,6 hPa 0,0 l/m 0 min 0 min 19 W/m 22,5 km/h (4 Bft) 97,87 %
19.02.2022 08:08 4,3 C 3,9 C 0,0 C 76 % 1012,6 hPa 0,0 l/m 0 min 0 min 18 W/m 35,4 km/h (5 Bft) 100,00 %
19.02.2022 08:10 4,3 C 3,9 C 0,0 C 76 % 1012,6 hPa 0,0 l/m 0 min 0 min 18 W/m 32,2 km/h (5 Bft) 97,87 %
19.02.2022 08:12 4,3 C 3,9 C 0,0 C 76 % 1012,7 hPa 0,0 l/m 0 min 0 min 19 W/m 22,5 km/h (4 Bft) 100,00 %
19.02.2022 08:14 4,3 C 3,9 C 0,0 C 76 % 1012,7 hPa 0,0 l/m 0 min 0 min 19 W/m 38,6 km/h (5 Bft) 97,87 %
19.02.2022 08:16 4,3 C 3,9 C 0,0 C 76 % 1012,8 hPa 0,0 l/m 0 min 0 min 19 W/m 19,3 km/h (3 Bft) 97,87 %
19.02.2022 08:18 4,3 C 3,9 C 0,0 C 76 % 1012,9 hPa 0,0 l/m 0 min 0 min 22 W/m 16,1 km/h (3 Bft) 97,83 %
19.02.2022 08:20 4,3 C 3,9 C 0,0 C 76 % 1013,0 hPa 0,0 l/m 0 min 0 min 25 W/m 19,3 km/h (3 Bft) 95,74 %
19.02.2022 08:22 4,3 C 3,9 C 0,0 C 76 % 1013,1 hPa 0,0 l/m 0 min 0 min 26 W/m 19,3 km/h (3 Bft) 95,74 %
19.02.2022 08:24 4,3 C 3,9 C 0,0 C 76 % 1013,1 hPa 0,0 l/m 0 min 0 min 27 W/m 19,3 km/h (3 Bft) 95,74 %
19.02.2022 08:26 4,3 C 3,9 C 0,0 C 76 % 1013,2 hPa 0,0 l/m 0 min 0 min 28 W/m 19,3 km/h (3 Bft) 95,74 %
19.02.2022 08:28 4,3 C 3,9 C 0,0 C 76 % 1013,2 hPa 0,0 l/m 0 min 0 min 29 W/m 22,5 km/h (4 Bft) 95,65 %
19.02.2022 08:30 4,3 C 3,9 C 0,0 C 76 % 1013,2 hPa 0,0 l/m 0 min 0 min 30 W/m 22,5 km/h (4 Bft) 95,74 %
19.02.2022 08:32 4,3 C 3,9 C 0,0 C 76 % 1013,3 hPa 0,0 l/m 0 min 0 min 30 W/m 22,5 km/h (4 Bft) 95,74 %
19.02.2022 08:34 4,4 C 3,9 C 0,6 C 76 % 1013,3 hPa 0,0 l/m 0 min 0 min 31 W/m 25,7 km/h (4 Bft) 95,74 %
19.02.2022 08:36 4,4 C 3,9 C 0,6 C 76 % 1013,4 hPa 0,0 l/m 0 min 0 min 32 W/m 19,3 km/h (3 Bft) 95,74 %
19.02.2022 08:38 4,4 C 3,9 C 0,6 C 76 % 1013,4 hPa 0,0 l/m 0 min 0 min 33 W/m 19,3 km/h (3 Bft) 93,62 %
19.02.2022 08:40 4,4 C 3,9 C 0,6 C 76 % 1013,4 hPa 0,0 l/m 0 min 0 min 34 W/m 38,6 km/h (5 Bft) 93,48 %
19.02.2022 08:42 4,4 C 3,9 C 0,6 C 76 % 1013,4 hPa 0,0 l/m 0 min 0 min 35 W/m 25,7 km/h (4 Bft) 95,74 %
19.02.2022 08:44 4,5 C 3,9 C 0,6 C 76 % 1013,5 hPa 0,0 l/m 0 min 0 min 35 W/m 38,6 km/h (5 Bft) 95,74 %
19.02.2022 08:46 4,5 C 3,9 C 0,6 C 76 % 1013,5 hPa 0,0 l/m 0 min 0 min 36 W/m 25,7 km/h (4 Bft) 95,74 %
19.02.2022 08:48 4,6 C 3,9 C 0,6 C 76 % 1013,6 hPa 0,0 l/m 0 min 0 min 42 W/m 32,2 km/h (5 Bft) 97,87 %
19.02.2022 08:50 4,6 C 3,9 C 0,6 C 76 % 1013,7 hPa 0,0 l/m 2 min 0 min 81 W/m 22,5 km/h (4 Bft) 97,87 %
19.02.2022 08:52 4,6 C 4,4 C 0,6 C 76 % 1013,8 hPa 0,0 l/m 2 min 0 min 132 W/m 16,1 km/h (3 Bft) 97,83 %
19.02.2022 08:54 4,6 C 4,4 C 0,6 C 76 % 1013,8 hPa 0,0 l/m 2 min 0 min 134 W/m 32,2 km/h (5 Bft) 95,74 %
19.02.2022 08:56 4,7 C 5,6 C 0,6 C 76 % 1013,8 hPa 0,0 l/m 2 min 0 min 131 W/m 22,5 km/h (4 Bft) 97,87 %
19.02.2022 08:58 4,8 C 5,6 C 0,6 C 76 % 1014,0 hPa 0,0 l/m 2 min 0 min 97 W/m 25,7 km/h (4 Bft) 97,87 %
19.02.2022 09:00 4,9 C 5,0 C 0,6 C 76 % 1014,1 hPa 0,0 l/m 0 min 0 min 78 W/m 22,5 km/h (4 Bft) 97,87 %
19.02.2022 09:02 4,9 C 5,0 C 0,6 C 76 % 1014,1 hPa 0,0 l/m 0 min 2 min 85 W/m 38,6 km/h (5 Bft) 93,62 %
19.02.2022 09:04 4,9 C 4,4 C 0,6 C 76 % 1014,1 hPa 0,0 l/m 0 min 0 min 75 W/m 22,5 km/h (4 Bft) 100,00 %
19.02.2022 09:06 4,8 C 4,4 C 0,6 C 76 % 1014,0 hPa 0,0 l/m 0 min 0 min 78 W/m 41,8 km/h (6 Bft) 100,00 %
19.02.2022 09:08 4,8 C 4,4 C 0,6 C 76 % 1014,2 hPa 0,0 l/m 0 min 2 min 70 W/m 19,3 km/h (3 Bft) 100,00 %
19.02.2022 09:10 4,8 C 4,4 C 0,6 C 77 % 1014,1 hPa 0,0 l/m 0 min 0 min 47 W/m 38,6 km/h (5 Bft) 100,00 %
19.02.2022 09:12 4,8 C 4,4 C 0,6 C 77 % 1014,3 hPa 0,0 l/m 0 min 0 min 41 W/m 29,0 km/h (5 Bft) 100,00 %
19.02.2022 09:14 4,8 C 4,4 C 0,6 C 77 % 1014,1 hPa 0,0 l/m 0 min 0 min 41 W/m 29,0 km/h (5 Bft) 100,00 %
19.02.2022 09:16 4,8 C 4,4 C 0,6 C 76 % 1014,3 hPa 0,0 l/m 0 min 0 min 40 W/m 32,2 km/h (5 Bft) 100,00 %
19.02.2022 09:18 4,8 C 4,4 C 0,6 C 76 % 1014,2 hPa 0,0 l/m 0 min 0 min 45 W/m 19,3 km/h (3 Bft) 100,00 %
19.02.2022 09:20 4,8 C 4,4 C 0,6 C 76 % 1014,3 hPa 0,0 l/m 0 min 0 min 65 W/m 38,6 km/h (5 Bft) 100,00 %
19.02.2022 09:22 4,8 C 5,0 C 0,6 C 76 % 1014,3 hPa 0,0 l/m 0 min 0 min 103 W/m 22,5 km/h (4 Bft) 100,00 %
19.02.2022 09:24 4,8 C 5,6 C 1,1 C 76 % 1014,2 hPa 0,0 l/m 0 min 0 min 108 W/m 25,7 km/h (4 Bft) 100,00 %
19.02.2022 09:26 4,9 C 5,6 C 1,1 C 76 % 1014,5 hPa 0,0 l/m 0 min 0 min 105 W/m 38,6 km/h (5 Bft) 100,00 %
19.02.2022 09:28 5,0 C 5,6 C 1,1 C 76 % 1014,4 hPa 0,0 l/m 2 min 0 min 123 W/m 25,7 km/h (4 Bft) 100,00 %
19.02.2022 09:30 5,1 C 5,0 C 1,1 C 76 % 1014,5 hPa 0,0 l/m 2 min 0 min 129 W/m 25,7 km/h (4 Bft) 100,00 %
19.02.2022 09:32 5,1 C 5,6 C 1,1 C 76 % 1014,5 hPa 0,0 l/m 2 min 0 min 130 W/m 29,0 km/h (5 Bft) 97,87 %
19.02.2022 09:34 5,2 C 6,1 C 1,1 C 75 % 1014,4 hPa 0,0 l/m 2 min 0 min 165 W/m 32,2 km/h (5 Bft) 100,00 %
19.02.2022 09:36 5,2 C 6,1 C 1,1 C 75 % 1014,4 hPa 0,0 l/m 0 min 0 min 118 W/m 22,5 km/h (4 Bft) 54,35 %
19.02.2022 09:38 5,3 C 6,1 C 1,7 C 75 % 1014,4 hPa 0,0 l/m 2 min 0 min 180 W/m 25,7 km/h (4 Bft) 97,83 %
19.02.2022 09:40 5,4 C 5,6 C 1,7 C 75 % 1014,5 hPa 0,0 l/m 2 min 0 min 143 W/m 38,6 km/h (5 Bft) 95,74 %
19.02.2022 09:42 5,4 C 5,6 C 1,7 C 75 % 1014,4 hPa 0,0 l/m 2 min 0 min 149 W/m 29,0 km/h (5 Bft) 97,96 %
19.02.2022 09:44 5,5 C 6,1 C 1,7 C 75 % 1014,5 hPa 0,0 l/m 2 min 0 min 139 W/m 35,4 km/h (5 Bft) 97,92 %
19.02.2022 09:46 5,6 C 6,1 C 1,7 C 75 % 1014,4 hPa 0,0 l/m 2 min 0 min 170 W/m 29,0 km/h (5 Bft) 95,74 %
19.02.2022 09:48 5,6 C 6,1 C 1,7 C 75 % 1014,4 hPa 0,0 l/m 2 min 0 min 208 W/m 29,0 km/h (5 Bft) 97,87 %
19.02.2022 09:50 5,7 C 6,1 C 1,7 C 75 % 1014,5 hPa 0,0 l/m 2 min 0 min 191 W/m 22,5 km/h (4 Bft) 97,83 %
19.02.2022 09:52 5,8 C 6,1 C 1,7 C 74 % 1014,5 hPa 0,0 l/m 2 min 0 min 174 W/m 25,7 km/h (4 Bft) 97,87 %
19.02.2022 09:54 5,8 C 6,7 C 1,7 C 74 % 1014,5 hPa 0,0 l/m 0 min 0 min 128 W/m 29,0 km/h (5 Bft) 97,87 %
19.02.2022 09:56 5,8 C 7,2 C 1,7 C 74 % 1014,5 hPa 0,0 l/m 2 min 0 min 165 W/m 19,3 km/h (3 Bft) 97,87 %
19.02.2022 09:58 5,8 C 7,2 C 1,7 C 74 % 1014,6 hPa 0,0 l/m 0 min 0 min 120 W/m 29,0 km/h (5 Bft) 97,87 %
19.02.2022 10:00 5,8 C 7,8 C 1,7 C 74 % 1014,6 hPa 0,0 l/m 2 min 0 min 191 W/m 25,7 km/h (4 Bft) 97,87 %
19.02.2022 10:02 5,9 C 7,8 C 1,7 C 74 % 1014,6 hPa 0,0 l/m 2 min 0 min 173 W/m 38,6 km/h (5 Bft) 97,83 %
19.02.2022 10:04 5,9 C 8,3 C 1,7 C 74 % 1014,6 hPa 0,0 l/m 2 min 0 min 159 W/m 35,4 km/h (5 Bft) 95,74 %
19.02.2022 10:06 6,0 C 8,3 C 1,7 C 73 % 1014,5 hPa 0,0 l/m 2 min 0 min 232 W/m 32,2 km/h (5 Bft) 95,74 %
19.02.2022 10:08 6,0 C 7,8 C 1,7 C 74 % 1014,6 hPa 0,0 l/m 2 min 0 min 174 W/m 19,3 km/h (3 Bft) 97,87 %
19.02.2022 10:10 6,1 C 8,3 C 2,2 C 74 % 1014,5 hPa 0,0 l/m 0 min 0 min 150 W/m 19,3 km/h (3 Bft) 97,87 %
19.02.2022 10:12 6,1 C 8,9 C 2,2 C 74 % 1014,6 hPa 0,0 l/m 2 min 0 min 239 W/m 35,4 km/h (5 Bft) 97,87 %
19.02.2022 10:14 6,2 C 8,9 C 2,2 C 74 % 1014,6 hPa 0,0 l/m 2 min 0 min 314 W/m 22,5 km/h (4 Bft) 97,87 %
19.02.2022 10:16 6,3 C 9,4 C 2,2 C 73 % 1014,7 hPa 0,0 l/m 2 min 0 min 367 W/m 29,0 km/h (5 Bft) 97,87 %
19.02.2022 10:18 6,3 C 9,4 C 2,2 C 73 % 1014,7 hPa 0,0 l/m 2 min 0 min 342 W/m 29,0 km/h (5 Bft) 97,87 %
19.02.2022 10:20 6,3 C 9,4 C 2,2 C 73 % 1014,7 hPa 0,0 l/m 2 min 0 min 343 W/m 29,0 km/h (5 Bft) 97,87 %
19.02.2022 10:22 6,4 C 10,0 C 2,2 C 73 % 1014,7 hPa 0,0 l/m 2 min 0 min 266 W/m 22,5 km/h (4 Bft) 97,87 %
19.02.2022 10:24 6,5 C 10,6 C 2,2 C 73 % 1014,7 hPa 0,0 l/m 2 min 0 min 267 W/m 19,3 km/h (3 Bft) 95,65 %
19.02.2022 10:26 6,5 C 10,6 C 2,2 C 72 % 1014,7 hPa 0,0 l/m 2 min 0 min 285 W/m 29,0 km/h (5 Bft) 95,74 %
19.02.2022 10:28 6,5 C 10,0 C 2,2 C 72 % 1014,8 hPa 0,0 l/m 2 min 0 min 354 W/m 29,0 km/h (5 Bft) 95,74 %
19.02.2022 10:30 6,5 C 8,9 C 2,2 C 72 % 1014,7 hPa 0,0 l/m 2 min 0 min 206 W/m 19,3 km/h (3 Bft) 100,00 %
19.02.2022 10:32 6,5 C 8,9 C 2,2 C 72 % 1014,7 hPa 0,0 l/m 0 min 0 min 111 W/m 22,5 km/h (4 Bft) 96,23 %
19.02.2022 10:34 6,5 C 10,6 C 2,2 C 72 % 1014,7 hPa 0,0 l/m 2 min 0 min 378 W/m 29,0 km/h (5 Bft) 97,87 %
19.02.2022 10:36 6,5 C 10,6 C 2,8 C 72 % 1014,7 hPa 0,0 l/m 2 min 0 min 403 W/m 41,8 km/h (6 Bft) 97,87 %
19.02.2022 10:38 6,6 C 11,1 C 2,8 C 73 % 1014,7 hPa 0,0 l/m 2 min 0 min 376 W/m 16,1 km/h (3 Bft) 97,83 %
19.02.2022 10:40 6,7 C 11,7 C 2,8 C 72 % 1014,6 hPa 0,0 l/m 2 min 0 min 376 W/m 25,7 km/h (4 Bft) 97,87 %
19.02.2022 10:42 6,7 C 11,7 C 2,8 C 72 % 1014,6 hPa 0,0 l/m 2 min 0 min 354 W/m 22,5 km/h (4 Bft) 97,87 %
19.02.2022 10:44 6,8 C 11,7 C 2,8 C 71 % 1014,7 hPa 0,0 l/m 2 min 0 min 444 W/m 29,0 km/h (5 Bft) 97,87 %
19.02.2022 10:46 6,9 C 12,8 C 3,3 C 71 % 1014,6 hPa 0,0 l/m 2 min 0 min 483 W/m 16,1 km/h (3 Bft) 92,68 %
19.02.2022 10:48 7,1 C 12,8 C 3,3 C 71 % 1014,7 hPa 0,0 l/m 2 min 0 min 478 W/m 25,7 km/h (4 Bft) 98,11 %
19.02.2022 10:50 7,2 C 12,8 C 3,3 C 70 % 1014,8 hPa 0,0 l/m 2 min 0 min 464 W/m 25,7 km/h (4 Bft) 95,65 %
19.02.2022 10:52 7,3 C 12,8 C 3,3 C 70 % 1014,7 hPa 0,0 l/m 2 min 0 min 463 W/m 22,5 km/h (4 Bft) 100,00 %
19.02.2022 10:54 7,3 C 12,2 C 3,3 C 69 % 1014,6 hPa 0,0 l/m 2 min 0 min 448 W/m 35,4 km/h (5 Bft) 97,87 %
19.02.2022 10:56 7,2 C 11,1 C 3,3 C 68 % 1014,7 hPa 0,0 l/m 2 min 0 min 433 W/m 45,1 km/h (6 Bft) 100,00 %
19.02.2022 11:01 7,1 C 12,2 C 3,9 C 68 % 1014,7 hPa 0,0 l/m 5 min 0 min 348 W/m 29,0 km/h (5 Bft) 100,00 %
19.02.2022 11:02 7,1 C 12,2 C 3,9 C 68 % 1014,8 hPa 0,0 l/m 1 min 0 min 251 W/m 22,5 km/h (4 Bft) 100,00 %
19.02.2022 11:04 7,2 C 13,3 C 3,9 C 68 % 1014,8 hPa 0,0 l/m 2 min 0 min 373 W/m 25,7 km/h (4 Bft) 100,00 %
19.02.2022 11:06 7,3 C 12,8 C 4,4 C 68 % 1014,8 hPa 0,0 l/m 2 min 0 min 442 W/m 32,2 km/h (5 Bft) 100,00 %
19.02.2022 11:08 7,3 C 11,7 C 5,0 C 68 % 1014,8 hPa 0,0 l/m 2 min 0 min 388 W/m 22,5 km/h (4 Bft) 100,00 %
19.02.2022 11:10 7,3 C 11,1 C 5,0 C 69 % 1014,9 hPa 0,0 l/m 2 min 0 min 320 W/m 32,2 km/h (5 Bft) 97,87 %
19.02.2022 11:12 7,2 C 11,1 C 5,6 C 69 % 1014,9 hPa 0,0 l/m 2 min 0 min 336 W/m 32,2 km/h (5 Bft) 100,00 %
19.02.2022 11:14 7,2 C 11,1 C 5,6 C 68 % 1014,9 hPa 0,0 l/m 2 min 0 min 470 W/m 22,5 km/h (4 Bft) 100,00 %
19.02.2022 11:16 7,2 C 12,2 C 6,1 C 69 % 1014,9 hPa 0,0 l/m 2 min 0 min 488 W/m 16,1 km/h (3 Bft) 100,00 %
19.02.2022 11:18 7,3 C 13,3 C 7,2 C 70 % 1014,9 hPa 0,0 l/m 2 min 0 min 498 W/m 19,3 km/h (3 Bft) 100,00 %
19.02.2022 11:20 7,4 C 13,3 C 7,8 C 68 % 1014,9 hPa 0,0 l/m 2 min 0 min 513 W/m 22,5 km/h (4 Bft) 100,00 %
19.02.2022 11:22 7,4 C 11,7 C 7,2 C 69 % 1015,0 hPa 0,0 l/m 2 min 0 min 471 W/m 22,5 km/h (4 Bft) 100,00 %
19.02.2022 11:24 7,4 C 9,4 C 5,6 C 68 % 1015,0 hPa 0,0 l/m 2 min 0 min 381 W/m 16,1 km/h (3 Bft) 100,00 %
19.02.2022 11:26 7,3 C 9,4 C 5,0 C 69 % 1015,0 hPa 0,0 l/m 0 min 0 min 165 W/m 16,1 km/h (3 Bft) 97,83 %
19.02.2022 11:28 7,2 C 7,8 C 4,4 C 70 % 1015,1 hPa 0,0 l/m 0 min 0 min 124 W/m 25,7 km/h (4 Bft) 100,00 %
19.02.2022 11:30 7,1 C 7,2 C 3,9 C 70 % 1015,1 hPa 0,0 l/m 0 min 0 min 121 W/m 22,5 km/h (4 Bft) 100,00 %
19.02.2022 11:32 7,1 C 7,8 C 3,9 C 70 % 1015,1 hPa 0,0 l/m 0 min 0 min 125 W/m 22,5 km/h (4 Bft) 100,00 %
19.02.2022 11:34 7,1 C 10,0 C 5,0 C 71 % 1015,1 hPa 0,0 l/m 2 min 0 min 399 W/m 25,7 km/h (4 Bft) 100,00 %
19.02.2022 11:36 7,1 C 11,7 C 6,1 C 71 % 1015,2 hPa 0,0 l/m 2 min 0 min 595 W/m 16,1 km/h (3 Bft) 100,00 %
19.02.2022 11:38 7,2 C 11,1 C 5,6 C 70 % 1015,2 hPa 0,0 l/m 2 min 0 min 427 W/m 25,7 km/h (4 Bft) 100,00 %
19.02.2022 11:40 7,2 C 11,1 C 6,1 C 70 % 1015,1 hPa 0,0 l/m 0 min 0 min 207 W/m 22,5 km/h (4 Bft) 100,00 %
19.02.2022 11:42 7,2 C 9,4 C 5,0 C 70 % 1015,2 hPa 0,0 l/m 0 min 0 min 173 W/m 22,5 km/h (4 Bft) 97,87 %
19.02.2022 11:44 7,2 C 11,1 C 5,6 C 70 % 1015,2 hPa 0,0 l/m 2 min 0 min 247 W/m 32,2 km/h (5 Bft) 100,00 %
19.02.2022 11:46 7,3 C 11,7 C 6,1 C 69 % 1015,2 hPa 0,0 l/m 2 min 0 min 457 W/m 29,0 km/h (5 Bft) 100,00 %
19.02.2022 11:48 7,3 C 11,7 C 6,7 C 69 % 1015,2 hPa 0,0 l/m 2 min 0 min 396 W/m 16,1 km/h (3 Bft) 100,00 %
19.02.2022 11:50 7,4 C 10,0 C 5,6 C 69 % 1015,2 hPa 0,0 l/m 2 min 0 min 263 W/m 25,7 km/h (4 Bft) 100,00 %
19.02.2022 11:52 7,4 C 10,6 C 5,6 C 69 % 1015,3 hPa 0,0 l/m 2 min 0 min 291 W/m 16,1 km/h (3 Bft) 100,00 %
19.02.2022 11:54 7,4 C 10,0 C 5,6 C 69 % 1015,2 hPa 0,0 l/m 2 min 0 min 347 W/m 16,1 km/h (3 Bft) 100,00 %
19.02.2022 11:56 7,5 C 9,4 C 5,0 C 69 % 1015,2 hPa 0,0 l/m 2 min 0 min 320 W/m 29,0 km/h (5 Bft) 100,00 %
19.02.2022 11:58 7,4 C 9,4 C 5,0 C 68 % 1015,2 hPa 0,0 l/m 0 min 0 min 115 W/m 25,7 km/h (4 Bft) 100,00 %
19.02.2022 12:00 7,4 C 8,9 C 4,4 C 68 % 1015,2 hPa 0,0 l/m 0 min 0 min 177 W/m 22,5 km/h (4 Bft) 100,00 %
19.02.2022 12:02 7,4 C 9,4 C 5,0 C 69 % 1015,2 hPa 0,0 l/m 0 min 0 min 161 W/m 16,1 km/h (3 Bft) 100,00 %
19.02.2022 12:04 7,5 C 9,4 C 5,0 C 69 % 1015,2 hPa 0,0 l/m 0 min 0 min 163 W/m 22,5 km/h (4 Bft) 97,87 %
19.02.2022 12:08 7,6 C 8,9 C 5,0 C 68 % 1015,3 hPa 0,0 l/m 0 min 0 min 205 W/m 35,4 km/h (5 Bft) 100,00 %
19.02.2022 12:10 7,6 C 8,3 C 4,4 C 68 % 1015,3 hPa 0,0 l/m 0 min 0 min 126 W/m 19,3 km/h (3 Bft) 100,00 %
19.02.2022 12:12 7,5 C 8,3 C 4,4 C 68 % 1015,2 hPa 0,0 l/m 0 min 0 min 143 W/m 32,2 km/h (5 Bft) 100,00 %
19.02.2022 12:14 7,6 C 8,3 C 4,4 C 68 % 1015,2 hPa 0,0 l/m 0 min 0 min 184 W/m 19,3 km/h (3 Bft) 97,87 %
19.02.2022 12:16 7,6 C 8,3 C 4,4 C 69 % 1015,2 hPa 0,0 l/m 0 min 0 min 220 W/m 16,1 km/h (3 Bft) 93,62 %
19.02.2022 12:18 7,7 C 8,9 C 5,0 C 69 % 1015,2 hPa 0,0 l/m 0 min 0 min 226 W/m 19,3 km/h (3 Bft) 95,74 %
19.02.2022 12:20 7,7 C 8,9 C 5,0 C 69 % 1015,3 hPa 0,0 l/m 2 min 0 min 271 W/m 25,7 km/h (4 Bft) 95,74 %
19.02.2022 12:22 7,8 C 8,9 C 5,0 C 69 % 1015,2 hPa 0,0 l/m 0 min 0 min 224 W/m 38,6 km/h (5 Bft) 94,29 %
19.02.2022 12:24 7,8 C 8,3 C 5,0 C 67 % 1015,2 hPa 0,0 l/m 2 min 0 min 266 W/m 25,7 km/h (4 Bft) 96,15 %
19.02.2022 12:26 7,7 C 7,8 C 4,4 C 67 % 1015,3 hPa 0,0 l/m 0 min 0 min 152 W/m 22,5 km/h (4 Bft) 91,49 %
19.02.2022 12:28 7,6 C 8,3 C 4,4 C 68 % 1015,3 hPa 0,0 l/m 0 min 0 min 168 W/m 25,7 km/h (4 Bft) 95,74 %
19.02.2022 12:30 7,7 C 10,6 C 5,0 C 69 % 1015,3 hPa 0,0 l/m 2 min 0 min 363 W/m 19,3 km/h (3 Bft) 95,74 %
19.02.2022 12:32 7,7 C 11,1 C 5,6 C 69 % 1015,4 hPa 0,0 l/m 2 min 0 min 331 W/m 29,0 km/h (5 Bft) 92,68 %
19.02.2022 12:34 7,9 C 11,1 C 6,1 C 69 % 1015,3 hPa 0,0 l/m 2 min 0 min 356 W/m 16,1 km/h (3 Bft) 94,34 %
19.02.2022 12:36 8,1 C 10,6 C 6,1 C 68 % 1015,3 hPa 0,0 l/m 2 min 0 min 367 W/m 22,5 km/h (4 Bft) 95,65 %
19.02.2022 12:38 8,2 C 11,1 C 6,1 C 68 % 1015,2 hPa 0,0 l/m 2 min 0 min 450 W/m 25,7 km/h (4 Bft) 95,74 %
19.02.2022 12:40 8,3 C 10,6 C 5,6 C 66 % 1015,2 hPa 0,0 l/m 2 min 0 min 297 W/m 19,3 km/h (3 Bft) 93,62 %
19.02.2022 12:42 8,3 C 10,0 C 5,6 C 66 % 1015,2 hPa 0,0 l/m 0 min 0 min 180 W/m 22,5 km/h (4 Bft) 91,67 %
19.02.2022 12:44 8,3 C 9,4 C 5,0 C 65 % 1015,2 hPa 0,0 l/m 0 min 0 min 216 W/m 29,0 km/h (5 Bft) 93,62 %
19.02.2022 12:46 8,2 C 9,4 C 5,0 C 65 % 1015,3 hPa 0,0 l/m 2 min 0 min 249 W/m 29,0 km/h (5 Bft) 95,74 %
19.02.2022 12:48 8,2 C 10,0 C 5,0 C 66 % 1015,3 hPa 0,0 l/m 2 min 0 min 344 W/m 29,0 km/h (5 Bft) 95,65 %
19.02.2022 12:50 8,3 C 11,7 C 5,0 C 66 % 1015,3 hPa 0,0 l/m 2 min 0 min 359 W/m 25,7 km/h (4 Bft) 95,74 %
19.02.2022 12:52 8,4 C 12,2 C 5,0 C 66 % 1015,3 hPa 0,0 l/m 2 min 0 min 554 W/m 29,0 km/h (5 Bft) 95,74 %
19.02.2022 12:54 8,4 C 11,1 C 5,0 C 65 % 1015,3 hPa 0,0 l/m 2 min 0 min 278 W/m 25,7 km/h (4 Bft) 95,83 %
19.02.2022 12:56 8,4 C 11,1 C 5,0 C 65 % 1015,3 hPa 0,0 l/m 0 min 0 min 209 W/m 25,7 km/h (4 Bft) 93,62 %
19.02.2022 12:58 8,3 C 11,1 C 4,4 C 65 % 1015,3 hPa 0,0 l/m 0 min 0 min 209 W/m 22,5 km/h (4 Bft) 91,49 %
19.02.2022 13:00 8,3 C 13,3 C 5,0 C 65 % 1015,3 hPa 0,0 l/m 0 min 0 min 209 W/m 32,2 km/h (5 Bft) 93,62 %
19.02.2022 13:02 8,5 C 14,4 C 5,0 C 66 % 1015,3 hPa 0,0 l/m 2 min 0 min 654 W/m 29,0 km/h (5 Bft) 95,83 %
19.02.2022 13:04 8,6 C 13,3 C 5,0 C 66 % 1015,2 hPa 0,0 l/m 2 min 0 min 655 W/m 29,0 km/h (5 Bft) 97,87 %
19.02.2022 13:06 8,6 C 13,9 C 5,0 C 65 % 1015,2 hPa 0,0 l/m 2 min 0 min 476 W/m 25,7 km/h (4 Bft) 97,87 %
19.02.2022 13:08 8,6 C 15,0 C 5,0 C 65 % 1015,2 hPa 0,0 l/m 2 min 0 min 622 W/m 22,5 km/h (4 Bft) 97,87 %
19.02.2022 13:10 8,7 C 12,8 C 5,0 C 65 % 1015,2 hPa 0,0 l/m 2 min 0 min 268 W/m 22,5 km/h (4 Bft) 97,83 %
19.02.2022 13:12 8,6 C 11,7 C 5,0 C 65 % 1015,3 hPa 0,0 l/m 0 min 0 min 169 W/m 25,7 km/h (4 Bft) 97,87 %
19.02.2022 13:14 8,6 C 12,2 C 5,0 C 65 % 1015,2 hPa 0,0 l/m 0 min 0 min 199 W/m 22,5 km/h (4 Bft) 97,87 %
19.02.2022 13:16 8,4 C 10,6 C 5,0 C 65 % 1015,3 hPa 0,0 l/m 0 min 0 min 199 W/m 25,7 km/h (4 Bft) 95,74 %
19.02.2022 13:18 8,3 C 10,0 C 4,4 C 65 % 1015,2 hPa 0,0 l/m 0 min 0 min 168 W/m 29,0 km/h (5 Bft) 97,87 %
19.02.2022 13:20 8,2 C 10,0 C 4,4 C 65 % 1015,2 hPa 0,0 l/m 0 min 0 min 182 W/m 32,2 km/h (5 Bft) 97,87 %
19.02.2022 13:22 8,2 C 9,4 C 4,4 C 66 % 1015,2 hPa 0,0 l/m 0 min 0 min 181 W/m 16,1 km/h (3 Bft) 97,83 %
19.02.2022 13:24 8,2 C 11,7 C 4,4 C 67 % 1015,2 hPa 0,0 l/m 0 min 0 min 163 W/m 12,9 km/h (3 Bft) 97,87 %
19.02.2022 13:26 8,3 C 11,1 C 5,0 C 67 % 1015,2 hPa 0,0 l/m 0 min 0 min 160 W/m 12,9 km/h (3 Bft) 97,87 %
19.02.2022 13:28 8,4 C 12,8 C 5,0 C 67 % 1015,1 hPa 0,0 l/m 2 min 0 min 310 W/m 12,9 km/h (3 Bft) 95,74 %
19.02.2022 13:30 8,5 C 11,7 C 5,0 C 66 % 1015,2 hPa 0,0 l/m 2 min 0 min 631 W/m 29,0 km/h (5 Bft) 97,87 %
19.02.2022 13:32 8,4 C 11,1 C 4,4 C 66 % 1015,1 hPa 0,0 l/m 2 min 0 min 376 W/m 29,0 km/h (5 Bft) 97,87 %
19.02.2022 13:34 8,4 C 11,7 C 4,4 C 66 % 1015,0 hPa 0,0 l/m 0 min 0 min 209 W/m 25,7 km/h (4 Bft) 97,83 %
19.02.2022 13:36 8,4 C 11,7 C 4,4 C 66 % 1015,0 hPa 0,0 l/m 0 min 0 min 142 W/m 19,3 km/h (3 Bft) 97,87 %
19.02.2022 13:38 8,3 C 10,6 C 4,4 C 66 % 1015,1 hPa 0,0 l/m 0 min 0 min 150 W/m 25,7 km/h (4 Bft) 97,92 %
19.02.2022 13:40 8,2 C 10,0 C 4,4 C 65 % 1015,1 hPa 0,0 l/m 0 min 0 min 156 W/m 25,7 km/h (4 Bft) 97,87 %
19.02.2022 13:42 8,1 C 10,0 C 4,4 C 65 % 1015,0 hPa 0,0 l/m 0 min 0 min 150 W/m 35,4 km/h (5 Bft) 97,87 %
19.02.2022 13:44 8,1 C 11,7 C 4,4 C 66 % 1014,9 hPa 0,0 l/m 0 min 0 min 118 W/m 22,5 km/h (4 Bft) 97,87 %
19.02.2022 13:46 8,2 C 10,6 C 4,4 C 66 % 1014,9 hPa 0,0 l/m 0 min 0 min 119 W/m 16,1 km/h (3 Bft) 100,00 %
19.02.2022 13:48 8,2 C 11,1 C 4,4 C 66 % 1015,0 hPa 0,0 l/m 0 min 0 min 159 W/m 16,1 km/h (3 Bft) 100,00 %
19.02.2022 13:50 8,2 C 10,6 C 4,4 C 65 % 1014,9 hPa 0,0 l/m 0 min 0 min 170 W/m 25,7 km/h (4 Bft) 100,00 %
19.02.2022 13:52 8,2 C 11,7 C 4,4 C 65 % 1014,8 hPa 0,0 l/m 0 min 0 min 214 W/m 35,4 km/h (5 Bft) 100,00 %
19.02.2022 13:54 8,3 C 13,9 C 4,4 C 66 % 1014,9 hPa 0,0 l/m 2 min 0 min 400 W/m 19,3 km/h (3 Bft) 100,00 %
19.02.2022 13:56 8,5 C 13,9 C 5,0 C 66 % 1014,8 hPa 0,0 l/m 2 min 0 min 564 W/m 29,0 km/h (5 Bft) 100,00 %
19.02.2022 13:58 8,6 C 12,8 C 4,4 C 65 % 1014,8 hPa 0,0 l/m 2 min 0 min 279 W/m 29,0 km/h (5 Bft) 100,00 %
19.02.2022 14:00 8,6 C 12,2 C 5,0 C 64 % 1014,8 hPa 0,0 l/m 2 min 0 min 476 W/m 29,0 km/h (5 Bft) 100,00 %
19.02.2022 14:02 8,6 C 12,2 C 5,0 C 64 % 1014,8 hPa 0,0 l/m 2 min 0 min 442 W/m 25,7 km/h (4 Bft) 97,87 %
19.02.2022 14:04 8,7 C 11,7 C 4,4 C 64 % 1014,8 hPa 0,0 l/m 2 min 0 min 404 W/m 22,5 km/h (4 Bft) 100,00 %
19.02.2022 14:06 8,7 C 11,7 C 5,0 C 63 % 1014,7 hPa 0,0 l/m 2 min 0 min 415 W/m 19,3 km/h (3 Bft) 100,00 %
19.02.2022 14:08 8,7 C 11,7 C 5,0 C 63 % 1014,7 hPa 0,0 l/m 2 min 0 min 378 W/m 38,6 km/h (5 Bft) 97,87 %
19.02.2022 14:10 8,7 C 10,6 C 5,0 C 63 % 1014,7 hPa 0,0 l/m 2 min 0 min 297 W/m 25,7 km/h (4 Bft) 100,00 %
19.02.2022 14:12 8,7 C 10,0 C 5,0 C 63 % 1014,7 hPa 0,0 l/m 2 min 0 min 249 W/m 29,0 km/h (5 Bft) 97,87 %
19.02.2022 14:14 8,7 C 10,6 C 5,0 C 62 % 1014,7 hPa 0,0 l/m 2 min 0 min 256 W/m 25,7 km/h (4 Bft) 97,87 %
19.02.2022 14:16 8,6 C 9,4 C 4,4 C 63 % 1014,7 hPa 0,0 l/m 0 min 0 min 176 W/m 19,3 km/h (3 Bft) 95,74 %
19.02.2022 14:18 8,6 C 9,4 C 4,4 C 63 % 1014,7 hPa 0,0 l/m 2 min 0 min 251 W/m 25,7 km/h (4 Bft) 100,00 %
19.02.2022 14:20 8,5 C 10,0 C 4,4 C 63 % 1014,6 hPa 0,0 l/m 0 min 0 min 198 W/m 25,7 km/h (4 Bft) 100,00 %
19.02.2022 14:22 8,5 C 10,0 C 5,0 C 64 % 1014,7 hPa 0,0 l/m 0 min 0 min 200 W/m 19,3 km/h (3 Bft) 97,83 %
19.02.2022 14:24 8,6 C 10,0 C 5,0 C 63 % 1014,6 hPa 0,0 l/m 2 min 0 min 321 W/m 38,6 km/h (5 Bft) 97,87 %
19.02.2022 14:26 8,6 C 10,6 C 5,0 C 61 % 1014,6 hPa 0,0 l/m 2 min 0 min 395 W/m 35,4 km/h (5 Bft) 95,74 %
19.02.2022 14:28 8,7 C 10,6 C 5,0 C 62 % 1014,6 hPa 0,0 l/m 2 min 0 min 542 W/m 25,7 km/h (4 Bft) 97,87 %
19.02.2022 14:30 8,7 C 10,0 C 5,0 C 62 % 1014,6 hPa 0,0 l/m 2 min 0 min 310 W/m 19,3 km/h (3 Bft) 97,87 %
19.02.2022 14:32 8,7 C 11,1 C 5,0 C 62 % 1014,6 hPa 0,0 l/m 2 min 0 min 264 W/m 25,7 km/h (4 Bft) 97,83 %
19.02.2022 14:34 8,7 C 10,6 C 5,0 C 62 % 1014,6 hPa 0,0 l/m 2 min 0 min 552 W/m 22,5 km/h (4 Bft) 97,87 %
19.02.2022 14:36 8,8 C 10,0 C 5,0 C 62 % 1014,6 hPa 0,0 l/m 2 min 0 min 227 W/m 9,7 km/h (2 Bft) 97,87 %
19.02.2022 14:38 8,8 C 9,4 C 5,0 C 63 % 1014,6 hPa 0,0 l/m 0 min 0 min 184 W/m 12,9 km/h (3 Bft) 97,87 %
19.02.2022 14:40 8,7 C 8,9 C 5,0 C 62 % 1014,7 hPa 0,0 l/m 0 min 0 min 151 W/m 32,2 km/h (5 Bft) 97,87 %
19.02.2022 14:42 8,6 C 8,3 C 4,4 C 61 % 1014,6 hPa 0,0 l/m 0 min 0 min 103 W/m 29,0 km/h (5 Bft) 97,87 %
19.02.2022 14:44 8,4 C 7,8 C 4,4 C 62 % 1014,6 hPa 0,0 l/m 0 min 0 min 87 W/m 25,7 km/h (4 Bft) 97,87 %
19.02.2022 14:46 8,3 C 7,8 C 4,4 C 62 % 1014,7 hPa 0,0 l/m 0 min 0 min 93 W/m 22,5 km/h (4 Bft) 97,83 %
19.02.2022 14:48 8,2 C 7,8 C 3,9 C 63 % 1014,7 hPa 0,0 l/m 0 min 0 min 93 W/m 22,5 km/h (4 Bft) 97,87 %
19.02.2022 14:50 8,1 C 7,8 C 3,9 C 64 % 1014,7 hPa 0,0 l/m 0 min 0 min 93 W/m 25,7 km/h (4 Bft) 95,74 %
19.02.2022 14:52 8,1 C 7,8 C 3,9 C 64 % 1014,7 hPa 0,0 l/m 0 min 0 min 112 W/m 19,3 km/h (3 Bft) 97,87 %
19.02.2022 14:54 8,1 C 7,8 C 3,9 C 65 % 1014,6 hPa 0,0 l/m 0 min 0 min 166 W/m 12,9 km/h (3 Bft) 97,87 %
19.02.2022 14:56 8,1 C 8,3 C 4,4 C 65 % 1014,6 hPa 0,0 l/m 0 min 0 min 179 W/m 16,1 km/h (3 Bft) 97,83 %
19.02.2022 14:58 8,2 C 8,3 C 4,4 C 65 % 1014,5 hPa 0,0 l/m 0 min 0 min 139 W/m 19,3 km/h (3 Bft) 95,74 %
19.02.2022 15:00 8,2 C 7,8 C 4,4 C 65 % 1014,5 hPa 0,0 l/m 0 min 0 min 106 W/m 35,4 km/h (5 Bft) 93,62 %
19.02.2022 15:02 8,1 C 7,8 C 4,4 C 65 % 1014,4 hPa 0,0 l/m 0 min 0 min 97 W/m 32,2 km/h (5 Bft) 97,87 %
19.02.2022 15:04 8,1 C 7,8 C 4,4 C 65 % 1014,4 hPa 0,0 l/m 0 min 0 min 97 W/m 16,1 km/h (3 Bft) 97,87 %
19.02.2022 15:06 8,1 C 7,8 C 4,4 C 65 % 1014,4 hPa 0,0 l/m 0 min 0 min 120 W/m 25,7 km/h (4 Bft) 97,87 %
19.02.2022 15:08 8,2 C 8,9 C 4,4 C 65 % 1014,5 hPa 0,0 l/m 0 min 0 min 118 W/m 32,2 km/h (5 Bft) 97,83 %
19.02.2022 15:10 8,2 C 8,3 C 4,4 C 64 % 1014,4 hPa 0,0 l/m 0 min 0 min 118 W/m 38,6 km/h (5 Bft) 95,74 %
19.02.2022 15:12 8,2 C 8,3 C 4,4 C 64 % 1014,3 hPa 0,0 l/m 2 min 0 min 180 W/m 22,5 km/h (4 Bft) 97,87 %
19.02.2022 15:14 8,2 C 9,4 C 4,4 C 64 % 1014,3 hPa 0,0 l/m 2 min 0 min 222 W/m 38,6 km/h (5 Bft) 95,74 %
19.02.2022 15:16 8,3 C 10,0 C 4,4 C 64 % 1014,4 hPa 0,0 l/m 2 min 0 min 469 W/m 25,7 km/h (4 Bft) 95,74 %
19.02.2022 15:18 8,4 C 10,0 C 4,4 C 63 % 1014,3 hPa 0,0 l/m 2 min 0 min 289 W/m 25,7 km/h (4 Bft) 97,87 %
19.02.2022 15:20 8,5 C 10,0 C 4,4 C 63 % 1014,3 hPa 0,0 l/m 2 min 0 min 261 W/m 45,1 km/h (6 Bft) 97,83 %
19.02.2022 15:22 8,6 C 9,4 C 4,4 C 63 % 1014,2 hPa 0,0 l/m 2 min 0 min 273 W/m 29,0 km/h (5 Bft) 97,87 %
19.02.2022 15:24 8,6 C 9,4 C 4,4 C 63 % 1014,2 hPa 0,0 l/m 2 min 0 min 215 W/m 38,6 km/h (5 Bft) 97,87 %
19.02.2022 15:26 8,6 C 9,4 C 4,4 C 62 % 1014,1 hPa 0,0 l/m 2 min 0 min 209 W/m 29,0 km/h (5 Bft) 97,87 %
19.02.2022 15:28 8,6 C 10,0 C 4,4 C 62 % 1014,1 hPa 0,0 l/m 2 min 0 min 258 W/m 35,4 km/h (5 Bft) 97,87 %
19.02.2022 15:30 8,6 C 9,4 C 4,4 C 62 % 1014,1 hPa 0,0 l/m 2 min 0 min 254 W/m 29,0 km/h (5 Bft) 97,87 %
19.02.2022 15:32 8,6 C 9,4 C 4,4 C 62 % 1014,0 hPa 0,0 l/m 2 min 0 min 242 W/m 19,3 km/h (3 Bft) 97,83 %
19.02.2022 15:34 8,6 C 9,4 C 4,4 C 61 % 1013,9 hPa 0,0 l/m 2 min 0 min 223 W/m 38,6 km/h (5 Bft) 95,74 %
19.02.2022 15:36 8,6 C 9,4 C 4,4 C 62 % 1014,0 hPa 0,0 l/m 2 min 0 min 185 W/m 41,8 km/h (6 Bft) 95,74 %
19.02.2022 15:38 8,6 C 9,4 C 4,4 C 62 % 1014,0 hPa 0,0 l/m 2 min 0 min 160 W/m 22,5 km/h (4 Bft) 97,87 %
19.02.2022 15:40 8,6 C 8,9 C 4,4 C 62 % 1014,1 hPa 0,0 l/m 0 min 0 min 133 W/m 16,1 km/h (3 Bft) 97,87 %
19.02.2022 15:42 8,6 C 8,3 C 4,4 C 63 % 1014,0 hPa 0,0 l/m 0 min 0 min 123 W/m 29,0 km/h (5 Bft) 97,92 %
19.02.2022 15:44 8,5 C 8,3 C 4,4 C 63 % 1014,1 hPa 0,0 l/m 0 min 0 min 110 W/m 19,3 km/h (3 Bft) 97,83 %
19.02.2022 15:46 8,4 C 7,8 C 4,4 C 63 % 1014,0 hPa 0,0 l/m 0 min 0 min 101 W/m 25,7 km/h (4 Bft) 100,00 %
19.02.2022 15:48 8,4 C 7,8 C 4,4 C 64 % 1014,1 hPa 0,0 l/m 0 min 0 min 103 W/m 22,5 km/h (4 Bft) 97,87 %
19.02.2022 15:50 8,3 C 7,8 C 4,4 C 64 % 1014,0 hPa 0,0 l/m 0 min 0 min 106 W/m 22,5 km/h (4 Bft) 100,00 %
19.02.2022 15:52 8,3 C 7,8 C 4,4 C 65 % 1013,9 hPa 0,0 l/m 0 min 0 min 104 W/m 35,4 km/h (5 Bft) 100,00 %
19.02.2022 15:54 8,3 C 7,8 C 3,9 C 64 % 1013,9 hPa 0,0 l/m 0 min 0 min 98 W/m 32,2 km/h (5 Bft) 100,00 %
19.02.2022 15:56 8,2 C 7,8 C 3,9 C 65 % 1013,9 hPa 0,0 l/m 0 min 0 min 89 W/m 45,1 km/h (6 Bft) 100,00 %
19.02.2022 15:58 8,2 C 7,8 C 3,9 C 65 % 1013,9 hPa 0,0 l/m 0 min 0 min 87 W/m 29,0 km/h (5 Bft) 97,87 %
19.02.2022 16:00 8,2 C 7,8 C 3,9 C 65 % 1013,8 hPa 0,0 l/m 0 min 0 min 84 W/m 29,0 km/h (5 Bft) 100,00 %
19.02.2022 16:02 8,2 C 7,8 C 3,9 C 65 % 1013,8 hPa 0,0 l/m 0 min 0 min 84 W/m 29,0 km/h (5 Bft) 97,14 %
19.02.2022 16:04 8,2 C 7,8 C 3,9 C 65 % 1013,7 hPa 0,0 l/m 0 min 0 min 89 W/m 32,2 km/h (5 Bft) 100,00 %
19.02.2022 16:06 8,2 C 7,8 C 3,9 C 65 % 1013,8 hPa 0,0 l/m 0 min 0 min 88 W/m 32,2 km/h (5 Bft) 100,00 %
19.02.2022 16:08 8,1 C 7,8 C 3,9 C 65 % 1013,7 hPa 0,0 l/m 0 min 0 min 90 W/m 29,0 km/h (5 Bft) 98,08 %
19.02.2022 16:10 8,1 C 7,8 C 3,9 C 65 % 1013,7 hPa 0,0 l/m 0 min 0 min 95 W/m 25,7 km/h (4 Bft) 97,87 %
19.02.2022 16:12 8,2 C 7,8 C 3,9 C 64 % 1013,6 hPa 0,0 l/m 0 min 0 min 100 W/m 45,1 km/h (6 Bft) 97,87 %
19.02.2022 16:14 8,1 C 7,8 C 3,9 C 64 % 1013,6 hPa 0,0 l/m 0 min 0 min 109 W/m 41,8 km/h (6 Bft) 97,87 %
19.02.2022 16:16 8,1 C 7,8 C 3,9 C 65 % 1013,6 hPa 0,0 l/m 0 min 0 min 113 W/m 29,0 km/h (5 Bft) 97,56 %
19.02.2022 16:18 8,1 C 7,8 C 3,9 C 65 % 1013,5 hPa 0,0 l/m 0 min 0 min 110 W/m 25,7 km/h (4 Bft) 96,23 %
19.02.2022 16:20 8,1 C 7,8 C 3,9 C 65 % 1013,5 hPa 0,0 l/m 0 min 0 min 103 W/m 19,3 km/h (3 Bft) 95,65 %
19.02.2022 16:22 8,1 C 7,8 C 3,9 C 65 % 1013,4 hPa 0,0 l/m 0 min 0 min 94 W/m 22,5 km/h (4 Bft) 97,87 %
19.02.2022 16:24 8,1 C 7,8 C 3,9 C 65 % 1013,4 hPa 0,0 l/m 0 min 0 min 80 W/m 25,7 km/h (4 Bft) 97,87 %
19.02.2022 16:26 8,1 C 7,8 C 3,9 C 65 % 1013,3 hPa 0,0 l/m 0 min 0 min 67 W/m 22,5 km/h (4 Bft) 95,74 %
19.02.2022 16:28 8,1 C 7,8 C 3,9 C 65 % 1013,3 hPa 0,0 l/m 0 min 0 min 63 W/m 19,3 km/h (3 Bft) 95,74 %
19.02.2022 16:30 8,1 C 7,8 C 3,9 C 65 % 1013,3 hPa 0,0 l/m 0 min 0 min 63 W/m 38,6 km/h (5 Bft) 93,62 %
19.02.2022 16:32 8,1 C 7,8 C 3,9 C 65 % 1013,3 hPa 0,0 l/m 0 min 0 min 62 W/m 35,4 km/h (5 Bft) 97,56 %
19.02.2022 16:34 8,1 C 7,8 C 3,9 C 66 % 1013,2 hPa 0,0 l/m 0 min 0 min 58 W/m 29,0 km/h (5 Bft) 98,08 %
19.02.2022 16:36 8,1 C 7,2 C 3,9 C 66 % 1013,3 hPa 0,0 l/m 0 min 0 min 52 W/m 32,2 km/h (5 Bft) 95,74 %
19.02.2022 16:38 8,1 C 7,2 C 3,9 C 66 % 1013,3 hPa 0,0 l/m 0 min 0 min 42 W/m 25,7 km/h (4 Bft) 95,74 %
19.02.2022 16:40 8,1 C 7,2 C 3,9 C 66 % 1013,2 hPa 0,0 l/m 0 min 0 min 36 W/m 45,1 km/h (6 Bft) 95,74 %
19.02.2022 16:42 8,1 C 7,2 C 3,9 C 66 % 1013,2 hPa 0,0 l/m 0 min 0 min 35 W/m 25,7 km/h (4 Bft) 95,74 %
19.02.2022 16:44 8,1 C 7,2 C 3,9 C 67 % 1013,2 hPa 0,0 l/m 0 min 0 min 37 W/m 32,2 km/h (5 Bft) 95,65 %
19.02.2022 16:46 8,0 C 7,2 C 3,9 C 67 % 1013,2 hPa 0,0 l/m 0 min 0 min 37 W/m 25,7 km/h (4 Bft) 95,12 %
19.02.2022 16:48 8,0 C 7,2 C 3,9 C 67 % 1013,2 hPa 0,0 l/m 0 min 0 min 39 W/m 19,3 km/h (3 Bft) 94,34 %
19.02.2022 16:50 8,0 C 7,2 C 3,9 C 67 % 1013,1 hPa 0,0 l/m 0 min 0 min 38 W/m 29,0 km/h (5 Bft) 95,74 %
19.02.2022 16:52 8,0 C 7,2 C 3,9 C 66 % 1013,0 hPa 0,0 l/m 0 min 0 min 37 W/m 35,4 km/h (5 Bft) 95,74 %
19.02.2022 16:54 7,9 C 7,2 C 3,9 C 67 % 1013,0 hPa 0,0 l/m 0 min 0 min 35 W/m 22,5 km/h (4 Bft) 97,87 %
19.02.2022 16:56 7,9 C 7,2 C 3,9 C 67 % 1013,0 hPa 0,0 l/m 0 min 0 min 31 W/m 22,5 km/h (4 Bft) 97,83 %
19.02.2022 16:58 7,9 C 7,2 C 3,9 C 67 % 1013,0 hPa 0,0 l/m 0 min 0 min 28 W/m 22,5 km/h (4 Bft) 53,49 %
19.02.2022 17:00 7,9 C 7,2 C 3,3 C 67 % 1012,9 hPa 0,0 l/m 0 min 0 min 28 W/m 25,7 km/h (4 Bft) 97,87 %
19.02.2022 17:02 7,9 C 7,2 C 3,3 C 66 % 1012,9 hPa 0,0 l/m 0 min 0 min 28 W/m 25,7 km/h (4 Bft) 97,56 %
19.02.2022 17:04 7,9 C 7,2 C 3,3 C 66 % 1012,8 hPa 0,0 l/m 0 min 0 min 27 W/m 25,7 km/h (4 Bft) 98,11 %
19.02.2022 17:06 7,9 C 7,2 C 3,3 C 66 % 1012,8 hPa 0,0 l/m 0 min 0 min 26 W/m 25,7 km/h (4 Bft) 97,87 %
19.02.2022 17:08 7,9 C 7,2 C 3,3 C 66 % 1012,7 hPa 0,0 l/m 0 min 0 min 25 W/m 19,3 km/h (3 Bft) 97,83 %
19.02.2022 17:10 7,9 C 7,2 C 3,3 C 66 % 1012,7 hPa 0,0 l/m 0 min 0 min 21 W/m 25,7 km/h (4 Bft) 97,87 %
19.02.2022 17:12 7,8 C 7,2 C 3,3 C 66 % 1012,7 hPa 0,0 l/m 0 min 0 min 19 W/m 22,5 km/h (4 Bft) 100,00 %
19.02.2022 17:14 7,8 C 7,2 C 3,3 C 66 % 1012,7 hPa 0,0 l/m 0 min 0 min 15 W/m 35,4 km/h (5 Bft) 100,00 %
19.02.2022 17:16 7,8 C 7,2 C 3,3 C 66 % 1012,6 hPa 0,0 l/m 0 min 0 min 15 W/m 22,5 km/h (4 Bft) 100,00 %
19.02.2022 17:18 7,8 C 7,2 C 3,3 C 66 % 1012,5 hPa 0,0 l/m 0 min 0 min 15 W/m 25,7 km/h (4 Bft) 100,00 %
19.02.2022 17:20 7,8 C 7,2 C 3,3 C 66 % 1012,5 hPa 0,0 l/m 0 min 0 min 16 W/m 29,0 km/h (5 Bft) 98,08 %
19.02.2022 17:22 7,8 C 7,2 C 3,3 C 67 % 1012,5 hPa 0,0 l/m 0 min 0 min 16 W/m 16,1 km/h (3 Bft) 100,00 %
19.02.2022 17:24 7,8 C 7,2 C 3,3 C 66 % 1012,4 hPa 0,0 l/m 0 min 0 min 14 W/m 29,0 km/h (5 Bft) 100,00 %
19.02.2022 17:26 7,8 C 7,2 C 3,3 C 66 % 1012,4 hPa 0,0 l/m 0 min 0 min 12 W/m 25,7 km/h (4 Bft) 97,87 %
19.02.2022 17:28 7,8 C 7,2 C 3,3 C 66 % 1012,4 hPa 0,0 l/m 0 min 0 min 12 W/m 16,1 km/h (3 Bft) 100,00 %
19.02.2022 17:30 7,8 C 7,2 C 3,3 C 66 % 1012,4 hPa 0,0 l/m 0 min 0 min 12 W/m 29,0 km/h (5 Bft) 100,00 %
19.02.2022 17:32 7,8 C 7,2 C 3,3 C 66 % 1012,4 hPa 0,0 l/m 0 min 0 min 12 W/m 16,1 km/h (3 Bft) 100,00 %
19.02.2022 17:34 7,8 C 7,2 C 3,3 C 66 % 1012,4 hPa 0,0 l/m 0 min 0 min 10 W/m 16,1 km/h (3 Bft) 100,00 %
19.02.2022 17:36 7,7 C 7,2 C 3,3 C 66 % 1012,3 hPa 0,0 l/m 0 min 0 min 9 W/m 35,4 km/h (5 Bft) 97,87 %
19.02.2022 17:38 7,7 C 7,2 C 3,3 C 66 % 1012,4 hPa 0,0 l/m 0 min 0 min 9 W/m 32,2 km/h (5 Bft) 100,00 %
19.02.2022 17:40 7,7 C 7,2 C 3,3 C 66 % 1012,3 hPa 0,0 l/m 0 min 0 min 7 W/m 22,5 km/h (4 Bft) 97,92 %
19.02.2022 17:42 7,7 C 7,2 C 3,3 C 66 % 1012,2 hPa 0,0 l/m 0 min 0 min 7 W/m 25,7 km/h (4 Bft) 100,00 %
19.02.2022 17:44 7,7 C 7,2 C 3,3 C 67 % 1012,2 hPa 0,0 l/m 0 min 0 min 5 W/m 25,7 km/h (4 Bft) 97,83 %
19.02.2022 17:46 7,7 C 6,7 C 3,3 C 67 % 1012,1 hPa 0,0 l/m 0 min 0 min 5 W/m 32,2 km/h (5 Bft) 100,00 %
19.02.2022 17:48 7,7 C 6,7 C 3,3 C 67 % 1012,1 hPa 0,0 l/m 0 min 0 min 0 W/m 22,5 km/h (4 Bft) 100,00 %
19.02.2022 17:50 7,7 C 6,7 C 3,3 C 67 % 1012,1 hPa 0,0 l/m 0 min 0 min 0 W/m 22,5 km/h (4 Bft) 97,87 %
19.02.2022 17:52 7,6 C 6,7 C 3,3 C 67 % 1012,0 hPa 0,0 l/m 0 min 0 min 0 W/m 16,1 km/h (3 Bft) 97,87 %
19.02.2022 17:54 7,6 C 6,7 C 3,3 C 68 % 1012,0 hPa 0,0 l/m 0 min 0 min 0 W/m 35,4 km/h (5 Bft) 95,74 %
19.02.2022 17:56 7,6 C 6,7 C 3,3 C 68 % 1011,9 hPa 0,0 l/m 0 min 0 min 0 W/m 22,5 km/h (4 Bft) 97,83 %
19.02.2022 17:58 7,6 C 6,7 C 3,3 C 68 % 1011,9 hPa 0,0 l/m 0 min 0 min 0 W/m 25,7 km/h (4 Bft) 97,87 %
19.02.2022 18:00 7,6 C 6,7 C 3,3 C 67 % 1011,8 hPa 0,0 l/m 0 min 0 min 0 W/m 16,1 km/h (3 Bft) 97,87 %
19.02.2022 18:02 7,6 C 6,7 C 3,3 C 68 % 1011,8 hPa 0,0 l/m 0 min 0 min 0 W/m 19,3 km/h (3 Bft) 95,74 %
19.02.2022 18:04 7,6 C 6,7 C 3,3 C 68 % 1011,7 hPa 0,0 l/m 0 min 0 min 0 W/m 19,3 km/h (3 Bft) 97,87 %
19.02.2022 18:08 7,6 C 6,7 C 3,3 C 68 % 1011,7 hPa 0,0 l/m 0 min 0 min 0 W/m 29,0 km/h (5 Bft) 97,87 %
19.02.2022 18:10 7,6 C 6,7 C 3,3 C 68 % 1011,6 hPa 0,0 l/m 0 min 0 min 0 W/m 29,0 km/h (5 Bft) 95,83 %
19.02.2022 18:12 7,6 C 6,7 C 3,3 C 68 % 1011,6 hPa 0,0 l/m 0 min 0 min 0 W/m 35,4 km/h (5 Bft) 97,92 %
19.02.2022 18:14 7,6 C 6,7 C 3,3 C 68 % 1011,5 hPa 0,0 l/m 0 min 0 min 0 W/m 19,3 km/h (3 Bft) 95,74 %
19.02.2022 18:16 7,5 C 6,7 C 3,3 C 69 % 1011,5 hPa 0,0 l/m 0 min 0 min 0 W/m 25,7 km/h (4 Bft) 97,87 %
19.02.2022 18:18 7,5 C 6,7 C 3,3 C 69 % 1011,4 hPa 0,0 l/m 0 min 0 min 0 W/m 25,7 km/h (4 Bft) 97,83 %
19.02.2022 18:20 7,5 C 6,7 C 3,3 C 69 % 1011,4 hPa 0,0 l/m 0 min 0 min 0 W/m 45,1 km/h (6 Bft) 97,87 %
19.02.2022 18:22 7,5 C 6,7 C 3,3 C 69 % 1011,3 hPa 0,0 l/m 0 min 0 min 0 W/m 35,4 km/h (5 Bft) 95,74 %
19.02.2022 18:24 7,5 C 6,7 C 3,3 C 69 % 1011,3 hPa 0,0 l/m 0 min 0 min 0 W/m 32,2 km/h (5 Bft) 97,87 %
19.02.2022 18:26 7,5 C 6,7 C 3,3 C 69 % 1011,3 hPa 0,0 l/m 0 min 0 min 0 W/m 25,7 km/h (4 Bft) 97,87 %
19.02.2022 18:28 7,5 C 6,7 C 3,3 C 69 % 1011,3 hPa 0,0 l/m 0 min 0 min 0 W/m 22,5 km/h (4 Bft) 95,74 %
19.02.2022 18:30 7,5 C 6,7 C 3,3 C 69 % 1011,1 hPa 0,0 l/m 0 min 0 min 0 W/m 22,5 km/h (4 Bft) 95,65 %
19.02.2022 18:32 7,5 C 6,7 C 3,3 C 69 % 1011,0 hPa 0,0 l/m 0 min 0 min 0 W/m 22,5 km/h (4 Bft) 95,83 %
19.02.2022 18:34 7,5 C 6,7 C 3,3 C 69 % 1010,9 hPa 0,0 l/m 0 min 0 min 0 W/m 19,3 km/h (3 Bft) 91,67 %
19.02.2022 18:36 7,5 C 6,7 C 3,3 C 69 % 1011,0 hPa 0,0 l/m 0 min 0 min 0 W/m 12,9 km/h (3 Bft) 95,74 %
19.02.2022 18:38 7,5 C 6,7 C 2,8 C 70 % 1010,9 hPa 0,0 l/m 0 min 0 min 0 W/m 22,5 km/h (4 Bft) 95,74 %
19.02.2022 18:40 7,4 C 6,7 C 3,3 C 70 % 1010,9 hPa 0,0 l/m 0 min 0 min 0 W/m 22,5 km/h (4 Bft) 97,83 %
19.02.2022 18:42 7,4 C 6,7 C 3,3 C 70 % 1010,9 hPa 0,0 l/m 0 min 0 min 0 W/m 32,2 km/h (5 Bft) 97,87 %
19.02.2022 18:44 7,4 C 6,7 C 3,3 C 69 % 1010,9 hPa 0,0 l/m 0 min 0 min 0 W/m 32,2 km/h (5 Bft) 93,62 %
19.02.2022 18:46 7,4 C 6,7 C 3,3 C 69 % 1010,8 hPa 0,0 l/m 0 min 0 min 0 W/m 35,4 km/h (5 Bft) 97,14 %
19.02.2022 18:48 7,4 C 6,7 C 3,3 C 69 % 1010,8 hPa 0,0 l/m 0 min 0 min 0 W/m 22,5 km/h (4 Bft) 92,45 %
19.02.2022 18:50 7,4 C 6,7 C 3,3 C 69 % 1010,8 hPa 0,0 l/m 0 min 0 min 0 W/m 25,7 km/h (4 Bft) 95,74 %
19.02.2022 18:52 7,4 C 6,7 C 2,8 C 69 % 1010,9 hPa 0,0 l/m 0 min 0 min 0 W/m 16,1 km/h (3 Bft) 95,74 %
19.02.2022 18:54 7,4 C 6,7 C 2,8 C 69 % 1010,8 hPa 0,0 l/m 0 min 0 min 0 W/m 29,0 km/h (5 Bft) 95,65 %
19.02.2022 18:56 7,5 C 6,7 C 2,8 C 70 % 1010,9 hPa 0,0 l/m 0 min 0 min 0 W/m 41,8 km/h (6 Bft) 93,62 %
19.02.2022 18:58 7,4 C 6,7 C 2,8 C 70 % 1010,9 hPa 0,0 l/m 0 min 0 min 0 W/m 29,0 km/h (5 Bft) 95,74 %
19.02.2022 19:00 7,4 C 6,7 C 2,8 C 70 % 1010,8 hPa 0,0 l/m 0 min 0 min 0 W/m 32,2 km/h (5 Bft) 94,00 %
19.02.2022 19:02 7,4 C 6,7 C 2,8 C 70 % 1010,8 hPa 0,0 l/m 0 min 2 min 0 W/m 38,6 km/h (5 Bft) 94,00 %
19.02.2022 19:04 7,4 C 6,7 C 2,2 C 71 % 1010,9 hPa 0,0 l/m 0 min 2 min 0 W/m 29,0 km/h (5 Bft) 94,74 %
19.02.2022 19:06 7,3 C 6,1 C 2,2 C 71 % 1011,1 hPa 0,0 l/m 0 min 2 min 0 W/m 48,3 km/h (6 Bft) 96,15 %
19.02.2022 19:08 7,1 C 6,1 C 1,7 C 73 % 1010,8 hPa 0,0 l/m 0 min 2 min 0 W/m 45,1 km/h (6 Bft) 97,87 %
19.02.2022 19:10 7,0 C 5,6 C 1,7 C 74 % 1010,8 hPa 0,0 l/m 0 min 2 min 0 W/m 48,3 km/h (6 Bft) 98,00 %
19.02.2022 19:12 6,8 C 5,6 C 1,1 C 75 % 1010,8 hPa 0,0 l/m 0 min 2 min 0 W/m 54,7 km/h (7 Bft) 97,37 %
19.02.2022 19:14 6,7 C 5,6 C 1,1 C 76 % 1010,7 hPa 0,0 l/m 0 min 2 min 0 W/m 51,5 km/h (7 Bft) 97,87 %
19.02.2022 19:16 6,6 C 5,6 C 1,1 C 76 % 1010,7 hPa 0,0 l/m 0 min 2 min 0 W/m 54,7 km/h (7 Bft) 97,87 %
19.02.2022 19:18 6,6 C 5,6 C 1,1 C 76 % 1010,5 hPa 0,0 l/m 0 min 2 min 0 W/m 29,0 km/h (5 Bft) 97,87 %
19.02.2022 19:20 6,5 C 5,6 C 1,1 C 76 % 1010,4 hPa 0,0 l/m 0 min 2 min 0 W/m 45,1 km/h (6 Bft) 97,83 %
19.02.2022 19:22 6,5 C 5,6 C 1,1 C 77 % 1010,3 hPa 0,0 l/m 0 min 2 min 0 W/m 35,4 km/h (5 Bft) 97,87 %
19.02.2022 19:24 6,4 C 5,6 C 1,1 C 77 % 1010,1 hPa 0,0 l/m 0 min 2 min 0 W/m 41,8 km/h (6 Bft) 97,87 %
19.02.2022 19:26 6,4 C 5,6 C 1,1 C 76 % 1010,1 hPa 0,0 l/m 0 min 2 min 0 W/m 48,3 km/h (6 Bft) 95,74 %
19.02.2022 19:28 6,4 C 5,6 C 1,1 C 76 % 1010,1 hPa 0,0 l/m 0 min 2 min 0 W/m 29,0 km/h (5 Bft) 95,74 %
19.02.2022 19:30 6,4 C 5,6 C 1,7 C 77 % 1010,0 hPa 0,0 l/m 0 min 2 min 0 W/m 35,4 km/h (5 Bft) 100,00 %
19.02.2022 19:32 6,5 C 6,1 C 1,7 C 76 % 1009,9 hPa 0,0 l/m 0 min 2 min 0 W/m 45,1 km/h (6 Bft) 100,00 %
19.02.2022 19:34 6,5 C 6,1 C 1,7 C 75 % 1009,8 hPa 0,0 l/m 0 min 2 min 0 W/m 41,8 km/h (6 Bft) 100,00 %
19.02.2022 19:36 6,6 C 6,1 C 1,7 C 75 % 1009,7 hPa 0,0 l/m 0 min 2 min 0 W/m 35,4 km/h (5 Bft) 100,00 %
19.02.2022 19:38 6,7 C 6,1 C 1,7 C 75 % 1009,8 hPa 0,0 l/m 0 min 2 min 0 W/m 29,0 km/h (5 Bft) 100,00 %
19.02.2022 19:40 6,7 C 6,1 C 2,2 C 74 % 1009,7 hPa 0,0 l/m 0 min 2 min 0 W/m 38,6 km/h (5 Bft) 100,00 %
19.02.2022 19:42 6,8 C 6,1 C 2,2 C 74 % 1009,7 hPa 0,0 l/m 0 min 2 min 0 W/m 29,0 km/h (5 Bft) 56,52 %
19.02.2022 19:44 6,8 C 6,1 C 1,7 C 73 % 1009,6 hPa 0,0 l/m 0 min 2 min 0 W/m 64,4 km/h (8 Bft) 100,00 %
19.02.2022 19:46 6,8 C 6,1 C 1,7 C 73 % 1009,8 hPa 0,0 l/m 0 min 2 min 0 W/m 38,6 km/h (5 Bft) 97,87 %
19.02.2022 19:48 6,8 C 6,1 C 1,7 C 74 % 1009,8 hPa 0,0 l/m 0 min 2 min 0 W/m 74,0 km/h (8 Bft) 100,00 %
19.02.2022 19:50 6,8 C 6,1 C 1,7 C 74 % 1009,8 hPa 0,0 l/m 0 min 2 min 0 W/m 41,8 km/h (6 Bft) 100,00 %
19.02.2022 19:52 6,8 C 6,1 C 1,7 C 74 % 1009,8 hPa 0,0 l/m 0 min 2 min 0 W/m 57,9 km/h (7 Bft) 100,00 %
19.02.2022 19:54 6,7 C 5,6 C 1,7 C 75 % 1009,8 hPa 0,0 l/m 0 min 2 min 0 W/m 45,1 km/h (6 Bft) 97,83 %
19.02.2022 19:56 6,7 C 5,6 C 1,7 C 75 % 1009,9 hPa 0,0 l/m 0 min 2 min 0 W/m 74,0 km/h (8 Bft) 100,00 %
19.02.2022 19:58 6,6 C 5,6 C 1,1 C 76 % 1009,9 hPa 0,0 l/m 0 min 2 min 0 W/m 48,3 km/h (6 Bft) 100,00 %
19.02.2022 20:00 6,6 C 5,6 C 1,1 C 77 % 1010,0 hPa 0,0 l/m 0 min 2 min 0 W/m 48,3 km/h (6 Bft) 100,00 %
19.02.2022 20:02 6,5 C 5,6 C 1,1 C 77 % 1010,0 hPa 0,0 l/m 0 min 2 min 0 W/m 41,8 km/h (6 Bft) 100,00 %
19.02.2022 20:04 6,4 C 5,0 C 1,1 C 78 % 1010,0 hPa 0,0 l/m 0 min 2 min 0 W/m 48,3 km/h (6 Bft) 100,00 %
19.02.2022 20:06 6,3 C 5,0 C 0,6 C 79 % 1010,0 hPa 0,0 l/m 0 min 2 min 0 W/m 45,1 km/h (6 Bft) 100,00 %
19.02.2022 20:08 6,2 C 5,0 C 0,6 C 80 % 1010,0 hPa 0,2 l/m 0 min 2 min 0 W/m 41,8 km/h (6 Bft) 100,00 %
19.02.2022 20:10 6,1 C 4,4 C 0,6 C 81 % 1010,0 hPa 0,0 l/m 0 min 2 min 0 W/m 45,1 km/h (6 Bft) 100,00 %
19.02.2022 20:12 6,0 C 4,4 C 0,0 C 82 % 1009,9 hPa 0,2 l/m 0 min 2 min 0 W/m 41,8 km/h (6 Bft) 100,00 %
19.02.2022 20:14 5,9 C 4,4 C 0,0 C 82 % 1009,9 hPa 0,0 l/m 0 min 2 min 0 W/m 32,2 km/h (5 Bft) 97,87 %
19.02.2022 20:16 5,9 C 4,4 C 0,0 C 83 % 1009,9 hPa 0,0 l/m 0 min 2 min 0 W/m 35,4 km/h (5 Bft) 100,00 %
19.02.2022 20:18 5,8 C 4,4 C 0,0 C 83 % 1009,9 hPa 0,0 l/m 0 min 2 min 0 W/m 41,8 km/h (6 Bft) 100,00 %
19.02.2022 20:20 5,8 C 4,4 C 0,0 C 84 % 1009,8 hPa 0,0 l/m 0 min 2 min 0 W/m 51,5 km/h (7 Bft) 100,00 %
19.02.2022 20:22 5,7 C 4,4 C 0,0 C 84 % 1009,8 hPa 0,0 l/m 0 min 2 min 0 W/m 38,6 km/h (5 Bft) 97,87 %
19.02.2022 20:24 5,7 C 4,4 C 0,0 C 84 % 1009,6 hPa 0,2 l/m 0 min 2 min 0 W/m 57,9 km/h (7 Bft) 97,87 %
19.02.2022 20:26 5,6 C 3,9 C 0,0 C 85 % 1009,7 hPa 0,2 l/m 0 min 2 min 0 W/m 38,6 km/h (5 Bft) 97,87 %
19.02.2022 20:28 5,6 C 3,9 C 0,0 C 85 % 1009,6 hPa 0,0 l/m 0 min 2 min 0 W/m 48,3 km/h (6 Bft) 97,87 %
19.02.2022 20:30 5,5 C 3,9 C 0,0 C 86 % 1009,4 hPa 0,0 l/m 0 min 2 min 0 W/m 41,8 km/h (6 Bft) 97,87 %
19.02.2022 20:32 5,5 C 3,9 C 0,0 C 86 % 1009,3 hPa 0,0 l/m 0 min 2 min 0 W/m 45,1 km/h (6 Bft) 97,92 %
19.02.2022 20:34 5,4 C 3,9 C 0,0 C 86 % 1009,2 hPa 0,2 l/m 0 min 2 min 0 W/m 45,1 km/h (6 Bft) 95,74 %
19.02.2022 20:36 5,3 C 3,9 C 0,0 C 87 % 1009,1 hPa 0,0 l/m 0 min 2 min 0 W/m 25,7 km/h (4 Bft) 97,92 %
19.02.2022 20:38 5,3 C 3,9 C 0,0 C 87 % 1009,1 hPa 0,2 l/m 0 min 2 min 0 W/m 51,5 km/h (7 Bft) 95,74 %
19.02.2022 20:40 5,3 C 3,9 C 0,0 C 87 % 1009,1 hPa 0,0 l/m 0 min 2 min 0 W/m 38,6 km/h (5 Bft) 97,87 %
19.02.2022 20:42 5,2 C 3,9 C 0,0 C 87 % 1009,0 hPa 0,0 l/m 0 min 0 min 0 W/m 35,4 km/h (5 Bft) 100,00 %
19.02.2022 20:44 5,2 C 3,9 C 0,0 C 88 % 1008,9 hPa 0,0 l/m 0 min 0 min 0 W/m 25,7 km/h (4 Bft) 97,87 %
19.02.2022 20:46 5,2 C 3,9 C 0,0 C 88 % 1008,9 hPa 0,0 l/m 0 min 0 min 0 W/m 29,0 km/h (5 Bft) 95,74 %
19.02.2022 20:48 5,2 C 4,4 C 0,0 C 88 % 1008,8 hPa 0,0 l/m 0 min 2 min 0 W/m 41,8 km/h (6 Bft) 95,74 %
19.02.2022 20:50 5,2 C 4,4 C 0,0 C 88 % 1008,8 hPa 0,0 l/m 0 min 2 min 0 W/m 32,2 km/h (5 Bft) 95,65 %
19.02.2022 20:52 5,2 C 4,4 C 0,6 C 89 % 1008,8 hPa 0,0 l/m 0 min 2 min 0 W/m 22,5 km/h (4 Bft) 94,59 %
19.02.2022 20:54 5,2 C 4,4 C 0,6 C 89 % 1008,7 hPa 0,0 l/m 0 min 2 min 0 W/m 35,4 km/h (5 Bft) 93,48 %
19.02.2022 20:56 5,2 C 4,4 C 0,0 C 89 % 1008,5 hPa 0,0 l/m 0 min 2 min 0 W/m 32,2 km/h (5 Bft) 95,74 %
19.02.2022 20:58 5,2 C 4,4 C 0,0 C 89 % 1008,5 hPa 0,0 l/m 0 min 2 min 0 W/m 48,3 km/h (6 Bft) 93,62 %
19.02.2022 21:00 5,2 C 4,4 C 0,0 C 89 % 1008,4 hPa 0,0 l/m 0 min 2 min 0 W/m 41,8 km/h (6 Bft) 97,87 %
19.02.2022 21:02 5,2 C 4,4 C 0,0 C 89 % 1008,3 hPa 0,0 l/m 0 min 2 min 0 W/m 51,5 km/h (7 Bft) 95,74 %
19.02.2022 21:04 5,2 C 4,4 C 0,0 C 89 % 1008,2 hPa 0,0 l/m 0 min 2 min 0 W/m 51,5 km/h (7 Bft) 97,87 %
19.02.2022 21:06 5,2 C 4,4 C 0,6 C 89 % 1008,2 hPa 0,0 l/m 0 min 0 min 0 W/m 22,5 km/h (4 Bft) 97,83 %
19.02.2022 21:08 5,2 C 4,4 C 0,6 C 89 % 1008,1 hPa 0,0 l/m 0 min 0 min 0 W/m 29,0 km/h (5 Bft) 100,00 %
19.02.2022 21:10 5,2 C 4,4 C 0,6 C 89 % 1008,1 hPa 0,0 l/m 0 min 2 min 0 W/m 35,4 km/h (5 Bft) 97,87 %
19.02.2022 21:12 5,2 C 4,4 C 0,6 C 89 % 1008,1 hPa 0,0 l/m 0 min 2 min 0 W/m 35,4 km/h (5 Bft) 95,74 %
19.02.2022 21:14 5,2 C 4,4 C 0,6 C 89 % 1007,9 hPa 0,0 l/m 0 min 2 min 0 W/m 38,6 km/h (5 Bft) 97,87 %
19.02.2022 21:16 5,3 C 4,4 C 0,6 C 89 % 1008,0 hPa 0,0 l/m 0 min 2 min 0 W/m 57,9 km/h (7 Bft) 97,87 %
19.02.2022 21:18 5,3 C 4,4 C 0,6 C 89 % 1008,0 hPa 0,0 l/m 0 min 2 min 0 W/m 41,8 km/h (6 Bft) 97,83 %
19.02.2022 21:20 5,3 C 4,4 C 0,6 C 89 % 1007,9 hPa 0,0 l/m 0 min 2 min 0 W/m 32,2 km/h (5 Bft) 95,74 %
19.02.2022 21:22 5,3 C 4,4 C 0,6 C 89 % 1008,1 hPa 0,0 l/m 0 min 2 min 0 W/m 32,2 km/h (5 Bft) 95,74 %
19.02.2022 21:24 5,3 C 4,4 C 0,6 C 89 % 1008,1 hPa 0,2 l/m 0 min 2 min 0 W/m 57,9 km/h (7 Bft) 93,62 %
19.02.2022 21:26 5,3 C 3,9 C 0,6 C 89 % 1008,1 hPa 0,2 l/m 0 min 2 min 0 W/m 38,6 km/h (5 Bft) 95,74 %
19.02.2022 21:28 5,3 C 3,9 C 0,6 C 90 % 1008,0 hPa 0,2 l/m 0 min 2 min 0 W/m 51,5 km/h (7 Bft) 93,62 %
19.02.2022 21:30 5,2 C 3,3 C 0,6 C 90 % 1008,0 hPa 0,2 l/m 0 min 2 min 0 W/m 32,2 km/h (5 Bft) 95,65 %
19.02.2022 21:32 5,2 C 3,3 C 0,6 C 90 % 1008,1 hPa 0,0 l/m 0 min 2 min 0 W/m 48,3 km/h (6 Bft) 96,23 %
19.02.2022 21:34 5,2 C 3,3 C 0,6 C 90 % 1007,9 hPa 0,2 l/m 0 min 2 min 0 W/m 48,3 km/h (6 Bft) 95,74 %
19.02.2022 21:36 5,1 C 3,3 C 0,6 C 90 % 1007,9 hPa 0,0 l/m 0 min 2 min 0 W/m 32,2 km/h (5 Bft) 95,74 %
19.02.2022 21:38 5,1 C 3,3 C 0,6 C 91 % 1007,9 hPa 0,0 l/m 0 min 2 min 0 W/m 32,2 km/h (5 Bft) 95,74 %
19.02.2022 21:40 5,1 C 3,9 C 0,6 C 91 % 1007,8 hPa 0,0 l/m 0 min 0 min 0 W/m 29,0 km/h (5 Bft) 97,83 %
19.02.2022 21:42 5,1 C 3,9 C 0,6 C 91 % 1007,8 hPa 0,0 l/m 0 min 2 min 0 W/m 48,3 km/h (6 Bft) 97,92 %
19.02.2022 21:44 5,2 C 3,9 C 0,6 C 91 % 1007,7 hPa 0,0 l/m 0 min 0 min 0 W/m 38,6 km/h (5 Bft) 97,87 %
19.02.2022 21:46 5,2 C 3,9 C 0,6 C 91 % 1007,7 hPa 0,0 l/m 0 min 2 min 0 W/m 48,3 km/h (6 Bft) 89,36 %
19.02.2022 21:48 5,2 C 3,9 C 0,6 C 91 % 1007,8 hPa 0,0 l/m 0 min 2 min 0 W/m 51,5 km/h (7 Bft) 97,87 %
19.02.2022 21:50 5,2 C 3,9 C 0,6 C 91 % 1007,7 hPa 0,0 l/m 0 min 2 min 0 W/m 41,8 km/h (6 Bft) 97,83 %
19.02.2022 21:52 5,3 C 4,4 C 0,6 C 91 % 1007,7 hPa 0,2 l/m 0 min 2 min 0 W/m 48,3 km/h (6 Bft) 97,87 %
19.02.2022 21:54 5,3 C 4,4 C 0,6 C 91 % 1007,8 hPa 0,0 l/m 0 min 2 min 0 W/m 35,4 km/h (5 Bft) 97,87 %
19.02.2022 21:56 5,3 C 4,4 C 0,6 C 91 % 1007,8 hPa 0,0 l/m 0 min 2 min 0 W/m 51,5 km/h (7 Bft) 95,74 %
19.02.2022 21:58 5,3 C 3,9 C 0,6 C 92 % 1007,6 hPa 0,0 l/m 0 min 2 min 0 W/m 38,6 km/h (5 Bft) 97,87 %
19.02.2022 22:00 5,3 C 3,9 C 0,6 C 91 % 1007,7 hPa 0,0 l/m 0 min 2 min 0 W/m 48,3 km/h (6 Bft) 97,87 %
19.02.2022 22:02 5,3 C 4,4 C 0,6 C 91 % 1007,7 hPa 0,0 l/m 0 min 2 min 0 W/m 45,1 km/h (6 Bft) 97,87 %
19.02.2022 22:04 5,3 C 4,4 C 0,6 C 92 % 1007,6 hPa 0,0 l/m 0 min 2 min 0 W/m 32,2 km/h (5 Bft) 100,00 %
19.02.2022 22:06 5,3 C 4,4 C 0,6 C 92 % 1007,5 hPa 0,0 l/m 0 min 2 min 0 W/m 35,4 km/h (5 Bft) 100,00 %
19.02.2022 22:08 5,4 C 4,4 C 0,6 C 92 % 1007,6 hPa 0,0 l/m 0 min 2 min 0 W/m 35,4 km/h (5 Bft) 100,00 %
19.02.2022 22:10 5,4 C 4,4 C 0,6 C 92 % 1007,5 hPa 0,0 l/m 0 min 2 min 0 W/m 41,8 km/h (6 Bft) 100,00 %
19.02.2022 22:12 5,5 C 4,4 C 1,1 C 92 % 1007,5 hPa 0,0 l/m 0 min 2 min 0 W/m 51,5 km/h (7 Bft) 97,87 %
19.02.2022 22:14 5,6 C 4,4 C 1,1 C 92 % 1007,4 hPa 0,0 l/m 0 min 2 min 0 W/m 32,2 km/h (5 Bft) 100,00 %
19.02.2022 22:16 5,6 C 4,4 C 1,1 C 92 % 1007,5 hPa 0,0 l/m 0 min 2 min 0 W/m 67,6 km/h (8 Bft) 97,87 %
19.02.2022 22:18 5,6 C 4,4 C 1,1 C 92 % 1007,5 hPa 0,0 l/m 0 min 2 min 0 W/m 41,8 km/h (6 Bft) 100,00 %
19.02.2022 22:20 5,6 C 4,4 C 1,1 C 92 % 1007,4 hPa 0,0 l/m 0 min 2 min 0 W/m 25,7 km/h (4 Bft) 95,74 %
19.02.2022 22:22 5,6 C 4,4 C 1,1 C 92 % 1007,3 hPa 0,0 l/m 0 min 2 min 0 W/m 29,0 km/h (5 Bft) 97,87 %
19.02.2022 22:24 5,6 C 4,4 C 1,1 C 92 % 1007,4 hPa 0,0 l/m 0 min 2 min 0 W/m 45,1 km/h (6 Bft) 97,87 %
19.02.2022 22:26 5,6 C 4,4 C 1,1 C 92 % 1007,2 hPa 0,0 l/m 0 min 2 min 0 W/m 54,7 km/h (7 Bft) 97,83 %
19.02.2022 22:28 5,6 C 4,4 C 1,1 C 92 % 1007,3 hPa 0,0 l/m 0 min 2 min 0 W/m 51,5 km/h (7 Bft) 97,87 %
19.02.2022 22:30 5,6 C 4,4 C 1,1 C 92 % 1007,2 hPa 0,0 l/m 0 min 2 min 0 W/m 35,4 km/h (5 Bft) 97,87 %
19.02.2022 22:32 5,6 C 5,0 C 1,1 C 92 % 1007,3 hPa 0,0 l/m 0 min 2 min 0 W/m 57,9 km/h (7 Bft) 97,87 %
19.02.2022 22:34 5,7 C 5,0 C 1,1 C 92 % 1007,1 hPa 0,2 l/m 0 min 2 min 0 W/m 51,5 km/h (7 Bft) 95,74 %
19.02.2022 22:36 5,7 C 5,0 C 1,1 C 92 % 1007,2 hPa 0,0 l/m 0 min 2 min 0 W/m 41,8 km/h (6 Bft) 97,83 %
19.02.2022 22:38 5,7 C 5,0 C 1,1 C 92 % 1007,2 hPa 0,0 l/m 0 min 2 min 0 W/m 48,3 km/h (6 Bft) 97,87 %
19.02.2022 22:40 5,7 C 5,0 C 1,1 C 92 % 1007,2 hPa 0,0 l/m 0 min 2 min 0 W/m 45,1 km/h (6 Bft) 97,87 %
19.02.2022 22:42 5,8 C 5,0 C 1,1 C 92 % 1007,2 hPa 0,0 l/m 0 min 2 min 0 W/m 54,7 km/h (7 Bft) 95,74 %
19.02.2022 22:44 5,8 C 5,0 C 1,1 C 92 % 1007,1 hPa 0,0 l/m 0 min 2 min 0 W/m 41,8 km/h (6 Bft) 97,87 %
19.02.2022 22:46 5,8 C 5,0 C 1,1 C 92 % 1007,1 hPa 0,0 l/m 0 min 2 min 0 W/m 54,7 km/h (7 Bft) 97,87 %
19.02.2022 22:48 5,8 C 4,4 C 1,1 C 92 % 1007,1 hPa 0,0 l/m 0 min 2 min 0 W/m 51,5 km/h (7 Bft) 97,87 %
19.02.2022 22:50 5,8 C 4,4 C 1,1 C 92 % 1007,0 hPa 0,0 l/m 0 min 2 min 0 W/m 38,6 km/h (5 Bft) 100,00 %
19.02.2022 22:52 5,8 C 5,0 C 1,1 C 92 % 1007,3 hPa 0,0 l/m 0 min 2 min 0 W/m 38,6 km/h (5 Bft) 97,22 %
19.02.2022 22:54 5,8 C 5,0 C 1,1 C 92 % 1007,3 hPa 0,0 l/m 0 min 2 min 0 W/m 57,9 km/h (7 Bft) 97,87 %
19.02.2022 22:56 5,8 C 5,0 C 1,1 C 92 % 1007,2 hPa 0,0 l/m 0 min 2 min 0 W/m 35,4 km/h (5 Bft) 97,87 %
19.02.2022 22:58 5,8 C 5,0 C 1,1 C 92 % 1007,5 hPa 0,0 l/m 0 min 2 min 0 W/m 48,3 km/h (6 Bft) 100,00 %
19.02.2022 23:00 5,8 C 5,0 C 1,1 C 92 % 1007,5 hPa 0,0 l/m 0 min 2 min 0 W/m 48,3 km/h (6 Bft) 97,87 %
19.02.2022 23:02 5,9 C 5,0 C 1,1 C 92 % 1007,1 hPa 0,0 l/m 0 min 2 min 0 W/m 48,3 km/h (6 Bft) 100,00 %
19.02.2022 23:04 5,9 C 5,0 C 1,1 C 92 % 1007,1 hPa 0,0 l/m 0 min 0 min 0 W/m 51,5 km/h (7 Bft) 100,00 %
19.02.2022 23:06 5,9 C 5,0 C 1,7 C 92 % 1007,2 hPa 0,0 l/m 0 min 0 min 0 W/m 38,6 km/h (5 Bft) 100,00 %
19.02.2022 23:08 5,9 C 5,0 C 1,7 C 93 % 1007,3 hPa 0,0 l/m 0 min 0 min 0 W/m 41,8 km/h (6 Bft) 100,00 %
19.02.2022 23:10 6,0 C 5,0 C 1,7 C 93 % 1007,2 hPa 0,0 l/m 0 min 0 min 0 W/m 35,4 km/h (5 Bft) 100,00 %
19.02.2022 23:12 6,0 C 5,0 C 1,7 C 93 % 1007,2 hPa 0,0 l/m 0 min 0 min 0 W/m 35,4 km/h (5 Bft) 100,00 %
19.02.2022 23:14 6,1 C 5,0 C 1,7 C 93 % 1007,3 hPa 0,0 l/m 0 min 0 min 0 W/m 41,8 km/h (6 Bft) 100,00 %
19.02.2022 23:16 6,1 C 5,0 C 1,7 C 93 % 1007,2 hPa 0,0 l/m 0 min 0 min 0 W/m 32,2 km/h (5 Bft) 100,00 %
19.02.2022 23:18 6,1 C 5,0 C 1,7 C 93 % 1007,0 hPa 0,0 l/m 0 min 0 min 0 W/m 22,5 km/h (4 Bft) 100,00 %
19.02.2022 23:20 6,1 C 5,0 C 1,7 C 93 % 1007,1 hPa 0,0 l/m 0 min 0 min 0 W/m 35,4 km/h (5 Bft) 100,00 %
19.02.2022 23:22 6,2 C 5,6 C 1,7 C 93 % 1007,0 hPa 0,0 l/m 0 min 0 min 0 W/m 35,4 km/h (5 Bft) 98,18 %
19.02.2022 23:24 6,2 C 5,6 C 1,7 C 92 % 1007,0 hPa 0,0 l/m 0 min 0 min 0 W/m 29,0 km/h (5 Bft) 100,00 %
19.02.2022 23:26 6,3 C 5,6 C 1,7 C 92 % 1006,9 hPa 0,0 l/m 0 min 2 min 0 W/m 41,8 km/h (6 Bft) 97,87 %
19.02.2022 23:28 6,3 C 5,6 C 1,7 C 93 % 1007,0 hPa 0,0 l/m 0 min 2 min 0 W/m 35,4 km/h (5 Bft) 100,00 %
19.02.2022 23:30 6,4 C 5,6 C 1,7 C 93 % 1006,9 hPa 0,0 l/m 0 min 0 min 0 W/m 29,0 km/h (5 Bft) 100,00 %
19.02.2022 23:32 6,5 C 5,6 C 1,7 C 92 % 1006,8 hPa 0,0 l/m 0 min 0 min 0 W/m 25,7 km/h (4 Bft) 100,00 %
19.02.2022 23:34 6,5 C 5,6 C 1,7 C 92 % 1006,8 hPa 0,0 l/m 0 min 0 min 0 W/m 35,4 km/h (5 Bft) 100,00 %
19.02.2022 23:36 6,6 C 5,6 C 2,2 C 92 % 1007,2 hPa 0,0 l/m 0 min 2 min 0 W/m 32,2 km/h (5 Bft) 100,00 %
19.02.2022 23:38 6,6 C 5,6 C 2,2 C 92 % 1007,1 hPa 0,0 l/m 0 min 0 min 0 W/m 38,6 km/h (5 Bft) 97,87 %
19.02.2022 23:40 6,7 C 6,1 C 2,2 C 92 % 1007,0 hPa 0,0 l/m 0 min 2 min 0 W/m 48,3 km/h (6 Bft) 97,87 %
19.02.2022 23:42 6,7 C 6,1 C 2,2 C 92 % 1006,9 hPa 0,0 l/m 0 min 2 min 0 W/m 25,7 km/h (4 Bft) 100,00 %
19.02.2022 23:44 6,7 C 6,1 C 2,2 C 92 % 1007,0 hPa 0,0 l/m 0 min 2 min 0 W/m 19,3 km/h (3 Bft) 100,00 %
19.02.2022 23:46 6,8 C 6,1 C 2,2 C 92 % 1007,1 hPa 0,0 l/m 0 min 2 min 0 W/m 41,8 km/h (6 Bft) 100,00 %
19.02.2022 23:48 6,8 C 6,1 C 2,2 C 92 % 1006,9 hPa 0,0 l/m 0 min 2 min 0 W/m 25,7 km/h (4 Bft) 97,87 %
19.02.2022 23:50 6,8 C 6,1 C 2,2 C 92 % 1006,9 hPa 0,0 l/m 0 min 2 min 0 W/m 32,2 km/h (5 Bft) 97,87 %
19.02.2022 23:52 6,8 C 5,6 C 2,2 C 92 % 1006,9 hPa 0,0 l/m 0 min 2 min 0 W/m 38,6 km/h (5 Bft) 97,87 %
19.02.2022 23:54 6,9 C 5,6 C 2,2 C 92 % 1007,0 hPa 0,2 l/m 0 min 2 min 0 W/m 35,4 km/h (5 Bft) 95,74 %
19.02.2022 23:56 6,9 C 5,6 C 2,2 C 92 % 1007,0 hPa 0,0 l/m 0 min 2 min 0 W/m 25,7 km/h (4 Bft) 93,62 %
19.02.2022 23:58 6,9 C 5,6 C 2,2 C 92 % 1007,0 hPa 0,2 l/m 0 min 2 min 0 W/m 22,5 km/h (4 Bft) 95,65 %
_ Min-Zeit 07:02 07:14 06:10 14:26 00:02 - - - - 14:36 00:52
Minimum _ 4,3 C 3,3 C 0,0 C 61 % 1003,3 hPa - - - - 9,7 km/h (2 Bft) 44,44 %
_ Max-Zeit 14:36 13:08 11:20 23:08 12:32 20:08 11:01 00:08 13:04 19:48 00:00
Maximum _ 8,8 C 15,0 C 7,8 C 93 % 1015,4 hPa 0,2 l/m 5 min 4 min 655 W/m 74,0 km/h
S-SW (8 Bft)
100,00 %
Durchschnitt _ 6,3 C 6,4 C 2,2 C 74 % 1011,0 hPa #3,0 l/m #4:06 h #4:46 h 184 W/m 30,3 km/h (5 Bft) 97,41 %
© 2022 W. Hausmann